N4ASP-13 Weather Reports


time (UTC)temp
C
wind
direction
speed
KPH
gust
KPH
rain 1hr
cm
rain 24hr
cm
rain mn
cm
humidity
%
barometer
mb
20260510021223 16 195 3.2 8.0 0.00 0.00 0.00 88 1013.4
20260510021121 16 166 3.2 8.0 0.00 0.00 0.00 88 1013.4
20260510021022 16 165 3.2 8.0 0.00 0.00 0.00 88 1013.5
20260510020921 16 155 1.6 4.8 0.00 0.00 0.00 88 1013.3
20260510020821 16 155 1.6 4.8 0.00 0.00 0.00 87 1013.3
20260510020717 16 155 1.6 4.8 0.00 0.00 0.00 87 1013.3
20260510020617 16 155 1.6 4.8 0.00 0.00 0.00 87 1013.4
20260510020517 16 156 1.6 4.8 0.00 0.00 0.00 87 1013.4
20260510020417 16 155 1.6 4.8 0.00 0.00 0.00 87 1013.3
20260510020317 16 155 1.6 4.8 0.00 0.00 0.00 87 1013.2
20260510020219 16 155 1.6 4.8 0.00 0.00 0.00 87 1013.2
20260510020117 16 155 1.6 4.8 0.00 0.00 0.00 87 1013.2
20260510020018 16 155 3.2 8.0 0.00 0.00 0.00 87 1013.2
20260510015917 16 155 3.2 8.0 0.00 0.00 0.00 87 1013.2
20260510015716 16 155 3.2 8.0 0.00 0.00 0.00 87 1013.1
20260510015616 16 153 3.2 8.0 0.00 0.00 0.00 87 1013.2
20260510015518 16 153 3.2 8.0 0.00 0.00 0.00 87 1013.1
20260510015416 16 153 3.2 8.0 0.00 0.00 0.00 87 1013.0
20260510015316 16 157 3.2 8.0 0.00 0.00 0.00 87 1013.0
20260510015216 16 157 3.2 8.0 0.00 0.00 0.00 87 1013.0
20260510015116 16 157 3.2 8.0 0.00 0.00 0.00 87 1012.9
20260510015016 16 163 3.2 8.0 0.00 0.00 0.00 87 1012.9
20260510014916 16 188 3.2 9.7 0.00 0.00 0.00 87 1012.9
20260510014817 16 188 3.2 9.7 0.00 0.00 0.00 87 1012.9
20260510014716 16 188 3.2 9.7 0.00 0.00 0.00 87 1012.8
20260510014617 16 189 3.2 9.7 0.00 0.00 0.00 87 1012.8
20260510014517 16 191 3.2 9.7 0.00 0.00 0.00 87 1012.8
20260510014417 16 171 3.2 9.7 0.00 0.00 0.00 87 1012.8
20260510014317 16 174 3.2 9.7 0.00 0.00 0.00 87 1012.8
20260510014217 16 151 3.2 9.7 0.00 0.00 0.00 86 1012.8
20260510014116 16 151 1.6 9.7 0.00 0.00 0.00 86 1012.8
20260510014016 16 150 1.6 9.7 0.00 0.00 0.00 86 1012.8
20260510013916 16 186 1.6 6.4 0.00 0.00 0.00 86 1012.8
20260510013817 16 186 1.6 6.4 0.00 0.00 0.00 86 1012.8
20260510013716 16 187 1.6 9.7 0.00 0.00 0.00 86 1012.9
20260510013616 16 188 1.6 9.7 0.00 0.00 0.00 86 1012.8
20260510013517 16 188 1.6 9.7 0.00 0.00 0.00 86 1012.8
20260510013413 17 195 1.6 9.7 0.00 0.00 0.00 86 1012.8
20260510013313 17 197 3.2 9.7 0.00 0.00 0.00 86 1012.8
20260510013212 16 197 3.2 9.7 0.00 0.00 0.00 86 1012.8
20260510013113 17 197 3.2 9.7 0.00 0.00 0.00 86 1012.8
20260510013012 17 196 3.2 9.7 0.00 0.00 0.00 86 1012.7
20260510012913 17 198 3.2 9.7 0.00 0.00 0.00 86 1012.7
20260510012813 17 196 4.8 9.7 0.00 0.00 0.00 86 1012.7
20260510012712 17 201 4.8 9.7 0.00 0.00 0.00 86 1012.6
20260510012612 17 188 3.2 9.7 0.00 0.00 0.00 86 1012.6
20260510012513 17 178 3.2 9.7 0.00 0.00 0.00 86 1012.7
20260510012413 17 229 4.8 9.7 0.00 0.00 0.00 86 1012.6
20260510012313 17 168 4.8 11.3 0.00 0.00 0.00 86 1012.7
20260510012212 17 178 4.8 11.3 0.00 0.00 0.00 86 1012.7
20260510012114 17 178 4.8 11.3 0.00 0.00 0.00 86 1012.6
20260510012013 17 173 4.8 11.3 0.00 0.00 0.00 86 1012.7
20260510011913 17 183 4.8 11.3 0.00 0.00 0.00 86 1012.6
20260510011813 17 177 4.8 12.9 0.00 0.00 0.00 86 1012.5
20260510011713 17 155 4.8 12.9 0.00 0.00 0.00 86 1012.5
20260510011612 17 167 4.8 12.9 0.00 0.00 0.00 85 1012.6
20260510011514 17 198 4.8 12.9 0.00 0.00 0.00 85 1012.5
20260510011412 17 135 3.2 12.9 0.00 0.00 0.00 85 1012.4
20260510011312 17 178 3.2 12.9 0.00 0.00 0.00 85 1012.5
20260510011212 17 138 4.8 12.9 0.00 0.00 0.00 85 1012.5
20260510011113 17 168 4.8 12.9 0.00 0.00 0.00 85 1012.5
20260510011012 17 168 4.8 12.9 0.00 0.00 0.00 85 1012.4
20260510010913 17 181 3.2 12.9 0.00 0.00 0.00 85 1012.4
20260510010804 17 201 3.2 11.3 0.00 0.00 0.00 85 1012.3
20260510010704 17 157 3.2 11.3 0.00 0.00 0.00 85 1012.3
20260510010605 17 156 3.2 11.3 0.00 0.00 0.00 85 1012.3
20260510010504 17 190 3.2 11.3 0.00 0.00 0.00 85 1012.3
20260510010405 17 178 3.2 11.3 0.00 0.00 0.00 84 1012.2
20260510010305 17 178 3.2 11.3 0.00 0.00 0.00 84 1012.3
20260510010204 17 172 3.2 9.7 0.00 0.00 0.00 84 1012.2
20260510010104 17 165 3.2 9.7 0.00 0.00 0.00 84 1012.3
20260510010005 17 165 3.2 9.7 0.00 0.00 0.00 84 1012.3
20260510005905 17 167 3.2 9.7 0.00 0.00 0.00 84 1012.2
20260510005805 17 179 3.2 9.7 0.00 0.00 0.00 84 1012.2
20260510005704 17 179 3.2 9.7 0.00 0.00 0.00 84 1012.2
20260510005604 17 178 3.2 9.7 0.00 0.00 0.00 84 1012.1
20260510005505 17 178 3.2 9.7 0.00 0.00 0.00 84 1012.0
20260510005404 17 180 3.2 9.7 0.00 0.00 0.00 84 1012.0
20260510005306 17 156 3.2 9.7 0.00 0.00 0.00 84 1012.1
20260510005205 17 181 3.2 9.7 0.00 0.00 0.00 84 1012.1
20260510005104 17 171 3.2 9.7 0.00 0.00 0.00 84 1011.8
20260510005005 17 190 3.2 12.9 0.00 0.00 0.00 84 1012.0
20260510004904 17 177 3.2 12.9 0.00 0.00 0.00 84 1012.0
20260510004805 17 179 3.2 12.9 0.00 0.00 0.00 84 1011.8
20260510004705 17 164 3.2 12.9 0.00 0.00 0.00 83 1011.8
20260510004604 17 165 3.2 12.9 0.00 0.00 0.00 83 1011.8
20260510004505 17 163 3.2 12.9 0.00 0.00 0.00 83 1011.7
20260510004405 17 163 3.2 12.9 0.00 0.00 0.00 83 1011.8
20260510004305 17 163 3.2 12.9 0.00 0.00 0.00 83 1011.8
20260510004205 17 161 3.2 12.9 0.00 0.00 0.00 83 1011.8
20260510004104 17 160 3.2 12.9 0.00 0.00 0.00 83 1011.8
20260510004005 17 202 3.2 12.9 0.00 0.00 0.00 83 1011.8
20260510003905 17 148 3.2 8.0 0.00 0.00 0.00 83 1011.8
20260510003806 17 203 3.2 8.0 0.00 0.00 0.00 83 1011.7
20260510003705 17 213 3.2 8.0 0.00 0.00 0.00 83 1011.7
20260510003606 17 234 3.2 8.0 0.00 0.00 0.00 83 1011.8
20260510003500 17 196 3.2 8.0 0.00 0.00 0.00 83 1011.7
20260510003402 17 196 3.2 9.7 0.00 0.00 0.00 83 1011.7
20260510003300 17 198 3.2 9.7 0.00 0.00 0.00 82 1011.7
20260510003200 17 185 3.2 9.7 0.00 0.00 0.00 82 1011.7
20260510003101 17 184 3.2 9.7 0.00 0.00 0.00 82 1011.6
20260510003003 17 166 3.2 9.7 0.00 0.00 0.00 82 1011.6
20260510002901 17 169 3.2 9.7 0.00 0.00 0.00 82 1011.7
20260510002800 17 169 3.2 9.7 0.00 0.00 0.00 82 1011.5
20260510002700 17 179 3.2 9.7 0.00 0.00 0.00 82 1011.6
20260510002602 17 182 3.2 9.7 0.00 0.00 0.00 82 1011.6
20260510002501 17 182 3.2 9.7 0.00 0.00 0.00 82 1011.5
20260510002401 17 156 3.2 9.7 0.00 0.00 0.00 82 1011.5
20260510002201 18 186 3.2 8.0 0.00 0.00 0.00 81 1011.5
20260510002102 18 180 3.2 8.0 0.00 0.00 0.00 81 1011.5
20260510002001 18 208 3.2 8.0 0.00 0.00 0.00 81 1011.4
20260510001900 18 219 3.2 8.0 0.00 0.00 0.00 81 1011.5
20260510001802 18 169 3.2 8.0 0.00 0.00 0.00 81 1011.4
20260510001700 18 169 3.2 8.0 0.00 0.00 0.00 81 1011.4
20260510001601 18 169 3.2 8.0 0.00 0.00 0.00 81 1011.3
20260510001501 18 167 3.2 8.0 0.00 0.00 0.00 81 1011.4
20260510001402 18 167 3.2 8.0 0.00 0.00 0.00 81 1011.4
20260510001300 18 167 1.6 8.0 0.00 0.00 0.00 81 1011.4
20260510001201 18 167 1.6 8.0 0.00 0.00 0.00 81 1011.4
20260510001100 18 165 1.6 6.4 0.00 0.00 0.00 80 1011.5
20260510001001 18 165 1.6 6.4 0.00 0.00 0.00 80 1011.4
20260510000902 18 165 1.6 6.4 0.00 0.00 0.00 80 1011.4
20260510000800 18 179 1.6 6.4 0.00 0.00 0.00 80 1011.4
20260510000701 18 179 3.2 6.4 0.00 0.00 0.00 80 1011.3
20260510000602 18 179 3.2 6.4 0.00 0.00 0.00 80 1011.3
20260510000500 18 157 3.2 6.4 0.00 0.00 0.00 80 1011.3
20260510000359 18 159 3.2 6.4 0.00 0.00 0.00 80 1011.3
20260510000304 18 159 3.2 6.4 0.00 0.00 0.00 80 1011.3
20260510000155 18 158 3.2 8.0 0.00 0.00 0.00 80 1011.3
20260510000054 18 159 3.2 8.0 0.00 0.00 0.00 80 1011.3
20260509235956 18 158 3.2 8.0 0.00 0.00 0.00 80 1011.3
20260509235854 18 158 3.2 8.0 0.00 0.00 0.00 80 1011.3
20260509235753 18 158 3.2 8.0 0.00 0.00 0.00 80 1011.3
20260509235646 18 157 3.2 8.0 0.00 0.00 0.00 79 1011.3
20260509235547 18 157 3.2 8.0 0.00 0.00 0.00 79 1011.4
20260509235443 18 157 3.2 8.0 0.00 0.00 0.00 79 1011.3
20260509235342 18 157 3.2 8.0 0.00 0.00 0.00 79 1011.3
20260509235238 18 157 3.2 8.0 0.00 0.00 0.00 79 1011.3
20260509235137 18 161 3.2 6.4 0.00 0.00 0.00 79 1011.3
20260509235037 18 162 3.2 6.4 0.00 0.00 0.00 79 1011.4
20260509234937 18 162 3.2 8.0 0.00 0.00 0.00 79 1011.3
20260509234837 18 184 3.2 11.3 0.00 0.00 0.00 79 1011.3
20260509234736 18 184 3.2 11.3 0.00 0.00 0.00 79 1011.4
20260509234633 18 178 3.2 11.3 0.00 0.00 0.00 79 1011.4
20260509234532 18 178 3.2 11.3 0.00 0.00 0.00 79 1011.4
20260509234433 18 178 4.8 12.9 0.00 0.00 0.00 78 1011.4
20260509234332 18 181 3.2 14.5 0.00 0.00 0.00 78 1011.3
20260509234231 18 182 3.2 14.5 0.00 0.00 0.00 78 1011.3
20260509234131 18 182 3.2 14.5 0.00 0.00 0.00 78 1011.4
20260509234030 18 145 3.2 14.5 0.00 0.00 0.00 78 1011.3
20260509233932 18 153 3.2 14.5 0.00 0.00 0.00 78 1011.4
20260509233832 18 153 1.6 14.5 0.00 0.00 0.00 78 1011.3
20260509233728 18 150 1.6 14.5 0.00 0.00 0.00 78 1011.4
20260509233630 18 161 1.6 14.5 0.00 0.00 0.00 78 1011.3
20260509233527 19 162 1.6 14.5 0.00 0.00 0.00 78 1011.3
20260509233427 19 163 1.6 14.5 0.00 0.00 0.00 78 1011.3
20260509233328 19 174 1.6 17.7 0.00 0.00 0.00 78 1011.3
20260509233225 19 129 3.2 17.7 0.00 0.00 0.00 78 1011.3
20260509233125 19 174 3.2 17.7 0.00 0.00 0.00 78 1011.3
20260509233024 19 154 3.2 17.7 0.00 0.00 0.00 77 1011.3
20260509232923 19 138 3.2 17.7 0.00 0.00 0.00 77 1011.3
20260509232823 19 137 4.8 17.7 0.00 0.00 0.00 77 1011.3
20260509232722 19 173 4.8 17.7 0.00 0.00 0.00 77 1011.3
20260509232623 19 128 4.8 17.7 0.00 0.00 0.00 77 1011.3
20260509232523 19 177 4.8 17.7 0.00 0.00 0.00 77 1011.4
20260509232418 19 159 4.8 17.7 0.00 0.00 0.00 77 1011.3
20260509232318 19 150 4.8 12.9 0.00 0.00 0.00 77 1011.4
20260509232119 19 138 4.8 11.3 0.00 0.00 0.00 76 1011.4
20260509232016 19 158 4.8 11.3 0.00 0.00 0.00 76 1011.3
20260509231907 19 152 3.2 11.3 0.00 0.00 0.00 76 1011.3
20260509231807 19 134 3.2 11.3 0.00 0.00 0.00 76 1011.3
20260509231706 19 169 3.2 11.3 0.00 0.00 0.00 76 1011.3
20260509231606 19 189 3.2 11.3 0.00 0.00 0.00 76 1011.3
20260509231507 20 144 3.2 9.7 0.00 0.00 0.00 76 1011.2
20260509231402 20 139 3.2 9.7 0.00 0.00 0.00 75 1011.1
20260509231300 20 165 3.2 9.7 0.00 0.00 0.00 76 1011.2
20260509231201 20 167 3.2 9.7 0.00 0.00 0.00 76 1011.1
20260509231101 20 166 3.2 9.7 0.00 0.00 0.00 76 1011.1
20260509231000 20 167 3.2 9.7 0.00 0.00 0.00 76 1011.0
20260509230855 20 162 1.6 9.7 0.00 0.00 0.00 75 1011.1
20260509230754 20 165 1.6 9.7 0.00 0.00 0.00 75 1011.1
20260509230656 20 167 1.6 9.7 0.00 0.00 0.00 75 1011.1
20260509230554 20 150 1.6 9.7 0.00 0.00 0.00 75 1011.1
20260509230455 20 156 0.0 8.0 0.00 0.00 0.00 75 1011.2
20260509230344 20 186 0.0 8.0 0.00 0.00 0.00 75 1011.0
20260509230245 20 159 0.0 3.2 0.00 0.00 0.00 75 1011.0
20260509230144 20 159 0.0 3.2 0.00 0.00 0.00 75 1011.0
20260509230045 20 159 0.0 1.6 0.00 0.00 0.00 75 1011.1
20260509225943 20 159 0.0 0.0 0.00 0.00 0.00 75 1011.0
20260509225838 20 161 0.0 0.0 0.00 0.00 0.00 75 1011.1
20260509225736 20 182 0.0 0.0 0.00 0.00 0.00 74 1011.0
20260509225637 20 182 0.0 0.0 0.00 0.00 0.00 74 1011.1
20260509225537 20 146 0.0 0.0 0.00 0.00 0.00 74 1011.1
20260509225436 20 143 0.0 0.0 0.00 0.00 0.00 74 1011.0
20260509225334 20 166 0.0 0.0 0.00 0.00 0.00 74 1011.0
20260509225235 20 149 0.0 0.0 0.00 0.00 0.00 74 1011.0
20260509225132 20 160 0.0 0.0 0.00 0.00 0.00 74 1011.0
20260509225032 20 190 0.0 0.0 0.00 0.00 0.00 74 1011.0
20260509224931 20 142 0.0 0.0 0.00 0.00 0.00 74 1011.0
20260509224824 20 157 0.0 0.0 0.00 0.00 0.00 74 1011.0
20260509224720 20 161 0.0 0.0 0.00 0.00 0.00 74 1010.9
20260509224620 20 175 0.0 0.0 0.00 0.00 0.00 74 1011.0
20260509224522 20 160 0.0 0.0 0.00 0.00 0.00 74 1011.0
20260509224421 20 173 0.0 0.0 0.00 0.00 0.00 74 1010.9
20260509224315 20 144 0.0 0.0 0.00 0.00 0.00 74 1011.0
20260509224214 20 140 0.0 0.0 0.00 0.00 0.00 74 1010.9
20260509224115 20 140 0.0 0.0 0.00 0.00 0.00 74 1010.9
20260509224016 20 166 0.0 0.0 0.00 0.00 0.00 74 1010.9
20260509223915 20 142 0.0 0.0 0.00 0.00 0.00 74 1010.9
20260509223812 20 141 0.0 0.0 0.00 0.00 0.00 74 1010.8
20260509223713 20 142 0.0 0.0 0.00 0.00 0.00 74 1010.8
20260509223612 20 141 0.0 0.0 0.00 0.00 0.00 74 1010.9
20260509223511 20 140 0.0 0.0 0.00 0.00 0.00 74 1010.8
20260509223407 20 150 0.0 0.0 0.00 0.00 0.00 73 1010.7
20260509223256 20 195 0.0 0.0 0.00 0.00 0.00 73 1010.7
20260509223157 20 122 0.0 0.0 0.00 0.00 0.00 73 1010.8
20260509223058 20 192 0.0 0.0 0.00 0.00 0.00 73 1010.7
20260509222957 20 180 0.0 0.0 0.00 0.00 0.00 73 1010.8
20260509222857 20 175 0.0 0.0 0.00 0.00 0.00 73 1010.7
20260509222752 20 146 0.0 0.0 0.00 0.00 0.00 73 1010.6
20260509222651 20 147 0.0 0.0 0.00 0.00 0.00 73 1010.6
20260509222550 20 264 0.0 0.0 0.00 0.00 0.00 73 1010.7
20260509222451 20 206 0.0 0.0 0.00 0.00 0.00 73 1010.6
20260509222350 20 171 0.0 0.0 0.00 0.00 0.00 72 1010.6
20260509222248 20 205 0.0 0.0 0.00 0.00 0.00 72 1010.6
20260509222145 20 213 0.0 0.0 0.00 0.00 0.00 73 1010.6
20260509222045 20 215 0.0 0.0 0.00 0.00 0.00 73 1010.5
20260509221945 20 176 0.0 0.0 0.00 0.00 0.00 72 1010.6
20260509221845 20 246 0.0 0.0 0.00 0.00 0.00 72 1010.6
20260509221737 20 168 0.0 0.0 0.00 0.00 0.00 72 1010.6
20260509221635 20 171 0.0 0.0 0.00 0.00 0.00 72 1010.5
20260509221536 20 158 0.0 0.0 0.00 0.00 0.00 71 1010.5
20260509221434 20 174 0.0 0.0 0.00 0.00 0.00 72 1010.4
20260509221334 21 128 0.0 0.0 0.00 0.00 0.00 71 1010.6
20260509221232 21 156 0.0 0.0 0.00 0.00 0.00 71 1010.5
20260509221132 21 148 0.0 0.0 0.00 0.00 0.00 71 1010.5
20260509221030 21 153 0.0 0.0 0.00 0.00 0.00 71 1010.5
20260509220931 21 143 0.0 0.0 0.00 0.00 0.00 71 1010.5
20260509220829 21 146 0.0 0.0 0.00 0.00 0.00 71 1010.6
20260509220726 21 173 0.0 0.0 0.00 0.00 0.00 71 1010.6
20260509220627 21 162 0.0 0.0 0.00 0.00 0.00 71 1010.6
20260509220526 21 191 0.0 0.0 0.00 0.00 0.00 71 1010.6
20260509220424 21 217 0.0 0.0 0.00 0.00 0.00 70 1010.6
20260509220323 21 217 0.0 0.0 0.00 0.00 0.00 70 1010.5
20260509220216 21 199 0.0 0.0 0.00 0.00 0.00 70 1010.6
20260509220113 21 149 0.0 0.0 0.00 0.00 0.00 71 1010.6
20260509220013 21 129 0.0 0.0 0.00 0.00 0.00 70 1010.6
20260509215913 21 158 0.0 0.0 0.00 0.00 0.00 70 1010.6
20260509215812 21 182 0.0 0.0 0.00 0.00 0.00 70 1010.6
20260509215706 21 173 0.0 0.0 0.00 0.00 0.00 70 1010.6
20260509215608 21 231 0.0 0.0 0.00 0.00 0.00 70 1010.6
20260509215507 21 144 0.0 0.0 0.00 0.00 0.00 70 1010.6
20260509215407 21 128 0.0 0.0 0.00 0.00 0.00 70 1010.6
20260509215306 21 165 0.0 0.0 0.00 0.00 0.00 70 1010.6
20260509215201 21 161 0.0 0.0 0.00 0.00 0.00 70 1010.5
20260509215100 21 167 0.0 0.0 0.00 0.00 0.00 70 1010.5
20260509215002 21 147 0.0 0.0 0.00 0.00 0.00 71 1010.5
20260509214901 21 144 0.0 0.0 0.00 0.00 0.00 70 1010.5
20260509214800 21 141 0.0 0.0 0.00 0.00 0.00 70 1010.5
20260509214652 21 202 0.0 0.0 0.00 0.00 0.00 70 1010.5
20260509214552 21 153 0.0 0.0 0.00 0.00 0.00 70 1010.5
20260509214453 21 161 0.0 0.0 0.00 0.00 0.00 70 1010.5
20260509214352 21 167 0.0 0.0 0.00 0.00 0.00 70 1010.5
20260509214251 21 139 0.0 0.0 0.00 0.00 0.00 71 1010.5
20260509214144 21 139 0.0 0.0 0.00 0.00 0.00 70 1010.5
20260509214044 21 134 0.0 0.0 0.00 0.00 0.00 70 1010.6
20260509213945 21 207 0.0 0.0 0.00 0.00 0.00 70 1010.5
20260509213843 21 193 0.0 0.0 0.00 0.00 0.00 70 1010.5
20260509213744 21 158 0.0 0.0 0.00 0.00 0.00 70 1010.6
20260509213639 21 136 0.0 0.0 0.00 0.00 0.00 69 1010.6
20260509213540 21 153 0.0 0.0 0.00 0.00 0.00 70 1010.6
20260509213440 21 169 0.0 0.0 0.00 0.00 0.00 70 1010.5
20260509213341 21 162 0.0 0.0 0.00 0.00 0.00 69 1010.5
20260509213239 21 192 0.0 0.0 0.00 0.00 0.00 70 1010.5
20260509213128 21 142 0.0 0.0 0.00 0.00 0.00 70 1010.6
20260509213028 21 175 0.0 0.0 0.00 0.00 0.00 69 1010.6
20260509212928 21 155 0.0 0.0 0.00 0.00 0.00 68 1010.6
20260509212830 21 146 0.0 0.0 0.00 0.00 0.00 69 1010.6
20260509212728 21 184 0.0 0.0 0.00 0.00 0.00 69 1010.5
20260509212624 21 148 0.0 0.0 0.00 0.00 0.00 69 1010.5
20260509212522 21 148 0.0 0.0 0.00 0.00 0.00 68 1010.4
20260509212423 21 150 0.0 0.0 0.00 0.00 0.00 69 1010.2
20260509212321 21 207 0.0 0.0 0.00 0.00 0.00 69 1010.2
20260509212223 21 178 0.0 0.0 0.00 0.00 0.00 69 1010.4
20260509212121 21 160 0.0 0.0 0.00 0.00 0.00 68 1010.2
20260509212022 21 145 0.0 0.0 0.00 0.00 0.00 67 1010.4
20260509211918 21 159 0.0 0.0 0.00 0.00 0.00 68 1010.2
20260509211819 21 150 0.0 0.0 0.00 0.00 0.00 67 1010.2
20260509211717 21 140 0.0 0.0 0.00 0.00 0.00 67 1010.5
20260509211606 21 157 0.0 0.0 0.00 0.00 0.00 66 1010.4
20260509211507 21 138 0.0 0.0 0.00 0.00 0.00 66 1010.5
20260509211407 21 132 0.0 0.0 0.00 0.00 0.00 66 1010.5
20260509211307 21 179 0.0 0.0 0.00 0.00 0.00 65 1010.4
20260509211206 22 202 0.0 0.0 0.00 0.00 0.00 66 1010.2
20260509211102 22 180 0.0 0.0 0.00 0.00 0.00 66 1010.1
20260509211003 22 141 0.0 0.0 0.00 0.00 0.00 66 1010.1
20260509210902 22 155 0.0 0.0 0.00 0.00 0.00 65 1010.2
20260509210802 22 155 0.0 0.0 0.00 0.00 0.00 65 1010.2
20260509210701 22 154 0.0 0.0 0.00 0.00 0.00 65 1010.2
20260509210601 22 153 0.0 0.0 0.00 0.00 0.00 65 1010.2
20260509210459 22 147 0.0 0.0 0.00 0.00 0.00 65 1010.2
20260509210356 22 153 0.0 0.0 0.00 0.00 0.00 64 1010.2
20260509210257 22 194 0.0 0.0 0.00 0.00 0.00 63 1010.4
20260509210154 22 177 0.0 0.0 0.00 0.00 0.00 64 1010.4
20260509210047 22 190 0.0 0.0 0.00 0.00 0.00 64 1010.4
20260509205944 22 140 0.0 0.0 0.00 0.00 0.00 65 1010.4
20260509205844 22 135 0.0 0.0 0.00 0.00 0.00 65 1010.2
20260509205744 22 161 0.0 0.0 0.00 0.00 0.00 66 1010.2
20260509205644 22 138 0.0 0.0 0.00 0.00 0.00 64 1010.2
20260509205545 22 166 0.0 0.0 0.00 0.00 0.00 66 1010.2
20260509205442 22 153 0.0 0.0 0.00 0.00 0.00 65 1010.2
20260509205344 22 162 0.0 0.0 0.00 0.00 0.00 65 1010.2
20260509205241 22 140 0.0 0.0 0.00 0.00 0.00 65 1010.2
20260509205138 22 187 0.0 0.0 0.00 0.00 0.00 64 1010.2
20260509205035 22 166 0.0 0.0 0.00 0.00 0.00 64 1010.4
20260509204836 22 180 0.0 0.0 0.00 0.00 0.00 64 1010.1
20260509204736 22 176 0.0 0.0 0.00 0.00 0.00 64 1010.1
20260509204632 22 97 0.0 0.0 0.00 0.00 0.00 64 1010.2
20260509204525 22 149 0.0 0.0 0.00 0.00 0.00 64 1010.1
20260509204423 22 154 0.0 0.0 0.00 0.00 0.00 64 1010.1
20260509204323 22 162 0.0 0.0 0.00 0.00 0.00 64 1010.1
20260509204223 22 133 0.0 0.0 0.00 0.00 0.00 64 1010.1
20260509204123 22 179 0.0 0.0 0.00 0.00 0.00 63 1010.0
20260509204022 22 182 0.0 0.0 0.00 0.00 0.00 65 1010.0
20260509203921 22 93 0.0 0.0 0.00 0.00 0.00 64 1010.0
20260509203821 22 178 0.0 0.0 0.00 0.00 0.00 64 1010.0
20260509203718 22 186 0.0 0.0 0.00 0.00 0.00 63 1010.1
20260509203617 22 146 0.0 0.0 0.00 0.00 0.00 64 1010.1
20260509203511 22 51 0.0 0.0 0.00 0.00 0.00 64 1010.1
20260509203410 22 119 0.0 0.0 0.00 0.00 0.00 64 1010.0
20260509203311 22 161 0.0 0.0 0.00 0.00 0.00 63 1009.9
20260509203211 22 170 0.0 0.0 0.00 0.00 0.00 63 1009.9
20260509203111 22 140 0.0 0.0 0.00 0.00 0.00 65 1010.0
20260509203000 22 150 0.0 0.0 0.00 0.00 0.00 64 1009.9
20260509202901 22 121 1.6 9.7 0.00 0.00 0.00 65 1010.0
20260509202801 22 144 1.6 9.7 0.00 0.00 0.00 64 1010.0
20260509202700 22 9 3.2 14.5 0.00 0.00 0.00 66 1010.0
20260509202600 22 35 3.2 14.5 0.00 0.00 0.00 65 1010.1
20260509202458 22 355 4.8 16.1 0.00 0.00 0.00 67 1010.1
20260509202358 22 21 4.8 16.1 0.00 0.00 0.00 65 1010.1
20260509202259 22 124 4.8 16.1 0.00 0.00 0.00 64 1010.1
20260509202157 22 160 4.8 16.1 0.00 0.00 0.00 66 1010.0
20260509202055 22 150 4.8 16.1 0.00 0.00 0.00 66 1010.1
20260509201950 22 145 4.8 16.1 0.00 0.00 0.00 65 1010.0
20260509201851 22 155 4.8 16.1 0.00 0.00 0.00 66 1010.1
20260509201750 22 138 3.2 16.1 0.00 0.00 0.00 65 1010.1
20260509201650 22 148 3.2 16.1 0.00 0.00 0.00 65 1010.2
20260509201549 22 144 1.6 16.1 0.00 0.00 0.00 66 1010.2
20260509201439 22 150 1.6 11.3 0.00 0.00 0.00 65 1010.2
20260509201340 22 192 0.0 11.3 0.00 0.00 0.00 67 1010.2
20260509201241 22 132 0.0 4.8 0.00 0.00 0.00 66 1010.2
20260509201141 22 145 0.0 0.0 0.00 0.00 0.00 66 1010.2
20260509201039 22 127 0.0 0.0 0.00 0.00 0.00 65 1010.4
20260509200935 22 132 0.0 0.0 0.00 0.00 0.00 66 1010.4
20260509200832 22 167 0.0 0.0 0.00 0.00 0.00 67 1010.4
20260509200732 22 163 0.0 0.0 0.00 0.00 0.00 64 1010.4
20260509200632 22 131 0.0 0.0 0.00 0.00 0.00 64 1010.4
20260509200533 22 105 0.0 0.0 0.00 0.00 0.00 65 1010.4
20260509200428 22 160 0.0 0.0 0.00 0.00 0.00 64 1010.4
20260509200329 22 140 0.0 0.0 0.00 0.00 0.00 65 1010.4
20260509200227 22 114 0.0 0.0 0.00 0.00 0.00 65 1010.2
20260509200129 22 175 0.0 0.0 0.00 0.00 0.00 65 1010.4
20260509200026 22 138 0.0 0.0 0.00 0.00 0.00 64 1010.4
20260509195917 22 200 0.0 0.0 0.00 0.00 0.00 64 1010.4
20260509195815 22 180 0.0 0.0 0.00 0.00 0.00 65 1010.4
20260509195716 22 144 0.0 0.0 0.00 0.00 0.00 66 1010.4
20260509195618 22 133 0.0 0.0 0.00 0.00 0.00 65 1010.5
20260509195516 22 115 0.0 0.0 0.00 0.00 0.00 66 1010.4
20260509195428 22 98 0.0 0.0 0.00 0.00 0.00 65 1010.4
20260509195310 22 198 0.0 0.0 0.00 0.00 0.00 64 1010.2
20260509195211 22 193 0.0 0.0 0.00 0.00 0.00 66 1010.4
20260509195111 22 184 0.0 0.0 0.00 0.00 0.00 65 1010.2
20260509195010 22 72 0.0 0.0 0.00 0.00 0.00 65 1010.2
20260509194905 22 142 0.0 0.0 0.00 0.00 0.00 65 1010.2
20260509194804 22 179 0.0 0.0 0.00 0.00 0.00 65 1010.4
20260509194704 22 162 0.0 0.0 0.00 0.00 0.00 65 1010.5
20260509194604 22 155 0.0 0.0 0.00 0.00 0.00 65 1010.5
20260509194504 22 180 0.0 0.0 0.00 0.00 0.00 64 1010.5
20260509194354 22 159 0.0 0.0 0.00 0.00 0.00 64 1010.5
20260509194254 22 146 0.0 0.0 0.00 0.00 0.00 65 1010.5
20260509194155 22 138 0.0 0.0 0.00 0.00 0.00 66 1010.4
20260509194055 22 119 0.0 0.0 0.00 0.00 0.00 66 1010.5
20260509193955 22 134 0.0 0.0 0.00 0.00 0.00 65 1010.5
20260509193849 22 137 0.0 0.0 0.00 0.00 0.00 64 1010.5
20260509193750 22 111 0.0 0.0 0.00 0.00 0.00 64 1010.5
20260509193651 22 146 0.0 0.0 0.00 0.00 0.00 64 1010.5
20260509193550 22 167 0.0 0.0 0.00 0.00 0.00 65 1010.5
20260509193448 22 142 0.0 0.0 0.00 0.00 0.00 65 1010.5
20260509193345 22 188 0.0 0.0 0.00 0.00 0.00 67 1010.5
20260509193247 22 142 0.0 0.0 0.00 0.00 0.00 66 1010.5
20260509193145 22 144 0.0 0.0 0.00 0.00 0.00 65 1010.5
20260509193044 22 170 0.0 0.0 0.00 0.00 0.00 67 1010.5
20260509192942 22 96 0.0 0.0 0.00 0.00 0.00 66 1010.5
20260509192836 22 148 0.0 0.0 0.00 0.00 0.00 66 1010.5
20260509192737 22 180 0.0 0.0 0.00 0.00 0.00 65 1010.5
20260509192636 22 163 0.0 0.0 0.00 0.00 0.00 64 1010.5
20260509192534 22 174 0.0 0.0 0.00 0.00 0.00 64 1010.5
20260509192433 22 123 0.0 0.0 0.00 0.00 0.00 63 1010.2
20260509192327 22 141 0.0 0.0 0.00 0.00 0.00 63 1010.5
20260509192226 22 126 0.0 0.0 0.00 0.00 0.00 64 1010.5
20260509192126 22 155 0.0 0.0 0.00 0.00 0.00 65 1010.5
20260509192026 22 130 0.0 0.0 0.00 0.00 0.00 66 1010.6
20260509191927 22 134 0.0 0.0 0.00 0.00 0.00 66 1010.6
20260509191824 22 129 0.0 0.0 0.00 0.00 0.00 66 1010.5
20260509191725 22 103 0.0 0.0 0.00 0.00 0.00 66 1010.6
20260509191621 22 147 0.0 0.0 0.00 0.00 0.00 65 1010.6
20260509191523 22 117 0.0 0.0 0.00 0.00 0.00 64 1010.5
20260509191420 22 150 0.0 0.0 0.00 0.00 0.00 64 1010.5
20260509191311 22 153 0.0 0.0 0.00 0.00 0.00 65 1010.7
20260509191212 22 128 0.0 0.0 0.00 0.00 0.00 64 1010.6
20260509191111 22 132 0.0 0.0 0.00 0.00 0.00 65 1010.6
20260509191010 22 106 0.0 0.0 0.00 0.00 0.00 65 1010.7
20260509190910 22 143 0.0 0.0 0.00 0.00 0.00 66 1010.7
20260509190803 22 184 0.0 0.0 0.00 0.00 0.00 65 1010.7
20260509190705 22 212 0.0 0.0 0.00 0.00 0.00 66 1010.6
20260509190605 22 146 0.0 0.0 0.00 0.00 0.00 66 1010.7
20260509190505 22 153 0.0 0.0 0.00 0.00 0.00 65 1010.7
20260509190405 22 163 0.0 0.0 0.00 0.00 0.00 67 1010.7
20260509190302 21 155 0.0 0.0 0.00 0.00 0.00 66 1010.7
20260509190201 21 153 0.0 0.0 0.00 0.00 0.00 66 1010.6
20260509190000 21 161 0.0 0.0 0.00 0.00 0.00 66 1010.6
20260509185858 21 205 0.0 0.0 0.00 0.00 0.00 66 1010.7
20260509185750 21 146 0.0 0.0 0.00 0.00 0.00 65 1010.7
20260509185649 21 119 0.0 0.0 0.00 0.00 0.00 65 1010.7
20260509185550 21 223 0.0 0.0 0.00 0.00 0.00 66 1010.7
20260509185451 21 161 0.0 0.0 0.00 0.00 0.00 66 1010.7
20260509185349 21 165 0.0 0.0 0.00 0.00 0.00 65 1010.6
20260509185242 21 129 0.0 0.0 0.00 0.00 0.00 65 1010.7
20260509185142 21 142 0.0 0.0 0.00 0.00 0.00 65 1010.7
20260509185043 21 67 0.0 0.0 0.00 0.00 0.00 66 1010.7
20260509184942 21 159 0.0 0.0 0.00 0.00 0.00 66 1010.6
20260509184843 21 123 0.0 0.0 0.00 0.00 0.00 65 1010.7
20260509184737 21 172 0.0 0.0 0.00 0.00 0.00 66 1010.7
20260509184636 21 183 0.0 0.0 0.00 0.00 0.00 67 1010.7
20260509184537 21 192 0.0 0.0 0.00 0.00 0.00 65 1010.6
20260509184437 21 245 0.0 0.0 0.00 0.00 0.00 66 1010.7
20260509184337 21 205 0.0 0.0 0.00 0.00 0.00 66 1010.6
20260509184231 21 159 0.0 0.0 0.00 0.00 0.00 66 1010.6
20260509184131 21 209 0.0 0.0 0.00 0.00 0.00 65 1010.6
20260509184031 21 116 0.0 0.0 0.00 0.00 0.00 65 1010.6
20260509183929 21 166 0.0 0.0 0.00 0.00 0.00 65 1010.6
20260509183826 21 134 0.0 0.0 0.00 0.00 0.00 65 1010.6
20260509183725 21 129 0.0 0.0 0.00 0.00 0.00 65 1010.7
20260509183624 21 133 0.0 0.0 0.00 0.00 0.00 64 1010.6
20260509183524 21 154 0.0 0.0 0.00 0.00 0.00 66 1010.6
20260509183423 21 183 0.0 0.0 0.00 0.00 0.00 65 1010.6
20260509183321 21 145 0.0 0.0 0.00 0.00 0.00 66 1010.6
20260509183215 21 157 0.0 0.0 0.00 0.00 0.00 64 1010.5
20260509183114 21 278 0.0 0.0 0.00 0.00 0.00 63 1010.6
20260509183015 21 181 0.0 0.0 0.00 0.00 0.00 65 1010.6
20260509182914 21 130 0.0 0.0 0.00 0.00 0.00 66 1010.5
20260509182815 21 160 0.0 0.0 0.00 0.00 0.00 67 1010.6
20260509182703 21 92 0.0 0.0 0.00 0.00 0.00 66 1010.6
20260509182605 21 150 0.0 0.0 0.00 0.00 0.00 67 1010.6
20260509182505 21 143 0.0 0.0 0.00 0.00 0.00 65 1010.7
20260509182404 21 148 0.0 0.0 0.00 0.00 0.00 66 1010.7
20260509182306 21 169 0.0 0.0 0.00 0.00 0.00 65 1010.7
20260509182201 21 140 0.0 0.0 0.00 0.00 0.00 65 1010.6
20260509182102 21 153 0.0 0.0 0.00 0.00 0.00 64 1010.6
20260509182002 21 159 0.0 0.0 0.00 0.00 0.00 64 1010.7
20260509181901 21 138 0.0 0.0 0.00 0.00 0.00 63 1010.6
20260509181759 21 188 0.0 0.0 0.00 0.00 0.00 65 1010.7
20260509181655 21 306 0.0 0.0 0.00 0.00 0.00 64 1010.8
20260509181556 21 290 0.0 0.0 0.00 0.00 0.00 67 1010.7
20260509181454 21 86 0.0 0.0 0.00 0.00 0.00 65 1010.7
20260509181355 21 133 0.0 0.0 0.00 0.00 0.00 65 1010.8
20260509181253 21 140 0.0 0.0 0.00 0.00 0.00 66 1010.7
20260509181142 21 159 0.0 0.0 0.00 0.00 0.00 66 1010.8
20260509181042 21 176 0.0 0.0 0.00 0.00 0.00 64 1010.8
20260509180942 21 121 0.0 0.0 0.00 0.00 0.00 65 1010.8
20260509180841 21 134 0.0 0.0 0.00 0.00 0.00 65 1010.9
20260509180743 21 155 0.0 0.0 0.00 0.00 0.00 67 1010.9
20260509180638 21 158 0.0 0.0 0.00 0.00 0.00 67 1011.0
20260509180537 21 110 0.0 0.0 0.00 0.00 0.00 66 1011.0
20260509180438 21 124 0.0 0.0 0.00 0.00 0.00 66 1011.0
20260509180338 21 136 0.0 0.0 0.00 0.00 0.00 67 1011.0
20260509180236 21 177 0.0 0.0 0.00 0.00 0.00 66 1011.1
20260509180133 21 178 0.0 0.0 0.00 0.00 0.00 68 1011.0
20260509180030 21 351 0.0 0.0 0.00 0.00 0.00 67 1011.0
20260509175930 21 128 0.0 0.0 0.00 0.00 0.00 67 1011.1
20260509175831 21 215 0.0 0.0 0.00 0.00 0.00 67 1011.0
20260509175731 21 250 0.0 0.0 0.00 0.00 0.00 68 1011.2
20260509175622 20 171 0.0 0.0 0.00 0.00 0.00 66 1011.2
20260509175522 20 155 0.0 0.0 0.00 0.00 0.00 67 1011.1
20260509175423 20 138 0.0 0.0 0.00 0.00 0.00 67 1011.2
20260509175321 20 159 0.0 0.0 0.00 0.00 0.00 68 1011.2
20260509175220 20 139 0.0 0.0 0.00 0.00 0.00 66 1011.2
20260509175120 20 136 0.0 0.0 0.00 0.00 0.00 66 1011.3
20260509175018 20 180 0.0 0.0 0.00 0.00 0.00 65 1011.2
20260509174918 20 173 0.0 0.0 0.00 0.00 0.00 65 1011.3
20260509174817 20 167 0.0 0.0 0.00 0.00 0.00 64 1011.2
20260509174714 20 171 0.0 0.0 0.00 0.00 0.00 64 1011.2
20260509174608 20 171 0.0 0.0 0.00 0.00 0.00 65 1011.3
20260509174509 20 171 0.0 0.0 0.00 0.00 0.00 64 1011.3
20260509174409 20 171 0.0 0.0 0.00 0.00 0.00 67 1011.4
20260509174309 20 153 0.0 0.0 0.00 0.00 0.00 65 1011.4
20260509174209 20 329 0.0 0.0 0.00 0.00 0.00 65 1011.3
20260509174101 20 305 0.0 0.0 0.00 0.00 0.00 66 1011.3
20260509174000 20 206 0.0 0.0 0.00 0.00 0.00 66 1011.3
20260509173901 20 210 0.0 0.0 0.00 0.00 0.00 66 1011.4
20260509173800 20 213 0.0 0.0 0.00 0.00 0.00 65 1011.3
20260509173658 20 216 0.0 0.0 0.00 0.00 0.00 67 1011.4
20260509173554 20 276 0.0 0.0 0.00 0.00 0.00 66 1011.3
20260509173452 20 276 0.0 0.0 0.00 0.00 0.00 65 1011.3
20260509173352 20 312 0.0 0.0 0.00 0.00 0.00 65 1011.3
20260509173255 21 326 0.0 0.0 0.00 0.00 0.00 65 1011.4
20260509173153 21 280 0.0 0.0 0.00 0.00 0.00 66 1011.4
20260509173048 21 130 0.0 0.0 0.00 0.00 0.00 66 1011.3
20260509172947 20 244 0.0 0.0 0.00 0.00 0.00 67 1011.4
20260509172847 20 183 0.0 0.0 0.00 0.00 0.00 67 1011.3
20260509172746 20 178 0.0 0.0 0.00 0.00 0.00 68 1011.4
20260509172647 20 50 0.0 0.0 0.00 0.00 0.00 69 1011.2
20260509172543 20 113 0.0 0.0 0.00 0.00 0.00 68 1011.2
20260509172440 20 114 0.0 0.0 0.00 0.00 0.00 68 1011.3
20260509172340 20 114 0.0 0.0 0.00 0.00 0.00 67 1011.2
20260509172239 20 311 0.0 0.0 0.00 0.00 0.00 67 1011.2
20260509172136 20 310 0.0 0.0 0.00 0.00 0.00 67 1011.2
20260509172034 20 317 0.0 0.0 0.00 0.00 0.00 67 1011.2
20260509171934 20 271 0.0 0.0 0.00 0.00 0.00 70 1011.3
20260509171835 20 178 0.0 0.0 0.00 0.00 0.00 68 1011.3
20260509171731 20 150 0.0 0.0 0.00 0.00 0.00 67 1011.3
20260509171632 20 139 0.0 0.0 0.00 0.00 0.00 70 1011.4
20260509171532 20 152 0.0 0.0 0.00 0.00 0.00 70 1011.3
20260509171433 20 148 0.0 0.0 0.00 0.00 0.00 70 1011.3
20260509171331 20 150 0.0 0.0 0.00 0.00 0.00 69 1011.3
20260509171229 20 149 0.0 0.0 0.00 0.00 0.00 70 1011.4
20260509171131 20 147 0.0 0.0 0.00 0.00 0.00 71 1011.3
20260509171028 20 86 0.0 0.0 0.00 0.00 0.00 72 1011.4
20260509170925 19 128 0.0 0.0 0.00 0.00 0.00 72 1011.4
20260509170826 19 168 0.0 0.0 0.00 0.00 0.00 71 1011.4
20260509170723 19 169 0.0 0.0 0.00 0.00 0.00 71 1011.5
20260509170624 19 164 0.0 0.0 0.00 0.00 0.00 68 1011.5
20260509170523 19 139 0.0 0.0 0.00 0.00 0.00 68 1011.6
20260509170419 20 152 0.0 0.0 0.00 0.00 0.00 68 1011.5
20260509170319 20 77 0.0 0.0 0.00 0.00 0.00 68 1011.4
20260509170221 20 134 0.0 0.0 0.00 0.00 0.00 68 1011.4
20260509170121 20 209 0.0 0.0 0.00 0.00 0.00 68 1011.4
20260509170020 20 159 0.0 0.0 0.00 0.00 0.00 68 1011.4
20260509165919 20 167 0.0 0.0 0.00 0.00 0.00 68 1011.4
20260509165817 20 133 0.0 0.0 0.00 0.00 0.00 69 1011.4
20260509165719 20 172 0.0 0.0 0.00 0.00 0.00 70 1011.4
20260509165618 20 158 0.0 0.0 0.00 0.00 0.00 69 1011.3
20260509165518 20 188 0.0 0.0 0.00 0.00 0.00 69 1011.3
20260509165419 20 135 0.0 0.0 0.00 0.00 0.00 69 1011.5
20260509165319 20 142 0.0 0.0 0.00 0.00 0.00 70 1011.5
20260509165218 20 53 0.0 0.0 0.00 0.00 0.00 68 1011.4
20260509165119 20 77 0.0 0.0 0.00 0.00 0.00 70 1011.5
20260509165016 20 77 0.0 0.0 0.00 0.00 0.00 69 1011.5
20260509164916 20 175 0.0 0.0 0.00 0.00 0.00 70 1011.5
20260509164815 20 175 0.0 0.0 0.00 0.00 0.00 68 1011.6
20260509164715 19 175 0.0 0.0 0.00 0.00 0.00 68 1011.6
20260509164616 20 195 0.0 0.0 0.00 0.00 0.00 69 1011.6
20260509164514 20 140 0.0 0.0 0.00 0.00 0.00 69 1011.6
20260509164413 19 150 0.0 0.0 0.00 0.00 0.00 70 1011.6
20260509164313 19 139 0.0 0.0 0.00 0.00 0.00 69 1011.7
20260509164211 20 124 0.0 0.0 0.00 0.00 0.00 68 1011.7
20260509164112 20 157 0.0 0.0 0.00 0.00 0.00 69 1011.6
20260509164012 20 164 0.0 0.0 0.00 0.00 0.00 69 1011.7
20260509163913 20 170 0.0 0.0 0.00 0.00 0.00 69 1011.7
20260509163812 20 178 0.0 0.0 0.00 0.00 0.00 68 1011.7
20260509163712 20 171 0.0 0.0 0.00 0.00 0.00 68 1011.8
20260509163607 20 193 0.0 0.0 0.00 0.00 0.00 67 1011.8
20260509163505 20 128 0.0 0.0 0.00 0.00 0.00 68 1011.8
20260509163407 20 134 0.0 0.0 0.00 0.00 0.00 69 1011.7
20260509163305 20 173 0.0 0.0 0.00 0.00 0.00 68 1011.8
20260509163206 20 184 0.0 0.0 0.00 0.00 0.00 68 1011.8
20260509163101 20 182 0.0 0.0 0.00 0.00 0.00 68 1012.0
20260509163002 20 226 0.0 0.0 0.00 0.00 0.00 70 1011.8
20260509162902 19 225 0.0 0.0 0.00 0.00 0.00 71 1012.0
20260509162803 19 167 0.0 0.0 0.00 0.00 0.00 69 1012.0
20260509162701 19 138 0.0 0.0 0.00 0.00 0.00 68 1012.0
20260509162557 19 273 0.0 0.0 0.00 0.00 0.00 68 1012.0
20260509162459 19 221 0.0 0.0 0.00 0.00 0.00 68 1012.0
20260509162358 19 214 0.0 0.0 0.00 0.00 0.00 69 1012.1
20260509162257 19 283 0.0 0.0 0.00 0.00 0.00 69 1012.0
20260509162157 19 119 0.0 0.0 0.00 0.00 0.00 70 1012.0
20260509162059 19 119 0.0 0.0 0.00 0.00 0.00 72 1012.0
20260509161956 19 344 0.0 0.0 0.00 0.00 0.00 71 1012.0
20260509161853 19 315 0.0 0.0 0.00 0.00 0.00 71 1012.1
20260509161754 19 154 0.0 0.0 0.00 0.00 0.00 70 1012.1
20260509161654 19 113 0.0 1.6 0.00 0.00 0.00 70 1012.0
20260509161551 19 205 0.0 8.0 0.00 0.00 0.00 71 1012.1
20260509161451 18 119 0.0 8.0 0.00 0.00 0.00 70 1012.0
20260509161352 18 187 1.6 8.0 0.00 0.00 0.00 69 1012.0
20260509161253 18 167 1.6 9.7 0.00 0.00 0.00 70 1012.0
20260509161152 18 192 1.6 11.3 0.00 0.00 0.00 70 1012.0
20260509161052 18 145 3.2 11.3 0.00 0.00 0.00 71 1012.0
20260509160951 18 144 3.2 14.5 0.00 0.00 0.00 70 1012.1
20260509160851 18 124 3.2 14.5 0.00 0.00 0.00 72 1012.0
20260509160751 18 66 4.8 14.5 0.00 0.00 0.00 70 1012.1
20260509160653 18 163 4.8 14.5 0.00 0.00 0.00 70 1012.2
20260509160550 18 105 4.8 14.5 0.00 0.00 0.00 71 1012.2
20260509160451 18 175 4.8 14.5 0.00 0.00 0.00 70 1012.2
20260509160350 18 284 4.8 14.5 0.00 0.00 0.00 71 1012.3
20260509160250 18 168 4.8 14.5 0.00 0.00 0.00 72 1012.2
20260509160151 18 182 4.8 14.5 0.00 0.00 0.00 71 1012.3
20260509160049 18 178 4.8 14.5 0.00 0.00 0.00 73 1012.3
20260509155948 18 348 4.8 11.3 0.00 0.00 0.00 73 1012.3
20260509155847 18 327 4.8 11.3 0.00 0.00 0.00 72 1012.3
20260509155748 18 178 4.8 11.3 0.00 0.00 0.00 73 1012.3
20260509155648 18 236 4.8 14.5 0.00 0.00 0.00 75 1012.3
20260509155549 18 105 4.8 14.5 0.00 0.00 0.00 74 1012.2
20260509155447 18 161 4.8 14.5 0.00 0.00 0.00 74 1012.3
20260509155348 18 245 4.8 14.5 0.00 0.00 0.00 73 1012.3
20260509155247 18 187 4.8 14.5 0.00 0.00 0.00 74 1012.3
20260509155148 18 148 4.8 14.5 0.00 0.00 0.00 74 1012.3
20260509155049 18 145 4.8 14.5 0.00 0.00 0.00 74 1012.3
20260509155001 18 153 4.8 14.5 0.00 0.00 0.00 74 1012.4
20260509154849 18 134 4.8 14.5 0.00 0.00 0.00 74 1012.3
20260509154747 18 177 4.8 14.5 0.00 0.00 0.00 73 1012.3
20260509154646 18 130 4.8 12.9 0.00 0.00 0.00 73 1012.4
20260509154544 18 146 4.8 12.9 0.00 0.00 0.00 73 1012.3
20260509154445 18 24 3.2 11.3 0.00 0.00 0.00 74 1012.3
20260509154343 18 141 3.2 11.3 0.00 0.00 0.00 74 1012.2
20260509154243 18 153 3.2 11.3 0.00 0.00 0.00 74 1012.1
20260509154143 18 154 3.2 11.3 0.00 0.00 0.00 74 1012.0
20260509154044 18 128 3.2 11.3 0.00 0.00 0.00 73 1012.1
20260509153935 18 190 3.2 11.3 0.00 0.00 0.00 74 1012.1
20260509153836 18 132 3.2 11.3 0.00 0.00 0.00 75 1012.0
20260509153736 18 137 3.2 11.3 0.00 0.00 0.00 75 1012.1
20260509153635 18 134 3.2 11.3 0.00 0.00 0.00 75 1012.0
20260509153535 18 126 3.2 11.3 0.00 0.00 0.00 74 1012.1
20260509153436 18 135 3.2 11.3 0.00 0.00 0.00 75 1012.0
20260509153336 18 152 3.2 11.3 0.00 0.00 0.00 75 1012.0
20260509153235 17 217 3.2 16.1 0.00 0.00 0.00 75 1012.1
20260509153136 17 155 3.2 16.1 0.00 0.00 0.00 75 1012.1
20260509153037 17 0 3.2 16.1 0.00 0.00 0.00 76 1012.0
20260509152936 17 17 4.8 16.1 0.00 0.00 0.00 75 1012.0
20260509152835 17 5 4.8 16.1 0.00 0.00 0.00 76 1012.0
20260509152736 17 0 4.8 16.1 0.00 0.00 0.00 76 1012.2
20260509152637 17 109 4.8 16.1 0.00 0.00 0.00 76 1012.1
20260509152536 17 188 4.8 16.1 0.00 0.00 0.00 74 1012.1
20260509152435 17 304 4.8 16.1 0.00 0.00 0.00 74 1012.2
20260509152335 17 168 4.8 16.1 0.00 0.00 0.00 75 1012.2
20260509152235 17 178 4.8 11.3 0.00 0.00 0.00 75 1012.2
20260509152135 18 148 4.8 11.3 0.00 0.00 0.00 75 1012.1
20260509152036 18 108 4.8 11.3 0.00 0.00 0.00 74 1012.2
20260509151936 18 5 4.8 11.3 0.00 0.00 0.00 75 1012.2
20260509151837 18 139 4.8 11.3 0.00 0.00 0.00 75 1012.1
20260509151735 18 194 4.8 11.3 0.00 0.00 0.00 77 1012.2
20260509151635 17 173 4.8 19.3 0.00 0.00 0.00 76 1012.1
20260509151535 17 174 4.8 19.3 0.00 0.00 0.00 75 1012.1
20260509151437 17 167 4.8 19.3 0.00 0.00 0.00 75 1012.2
20260509151336 17 134 6.4 19.3 0.00 0.00 0.00 75 1012.1
20260509151236 17 184 6.4 19.3 0.00 0.00 0.00 75 1012.0
20260509151135 17 177 6.4 19.3 0.00 0.00 0.00 75 1011.8
20260509151036 17 274 6.4 19.3 0.00 0.00 0.00 77 1011.8
20260509150936 17 133 6.4 19.3 0.00 0.00 0.00 76 1011.8
20260509150836 17 132 6.4 19.3 0.00 0.00 0.00 75 1011.7
20260509150737 17 140 6.4 19.3 0.00 0.00 0.00 75 1011.8
20260509150632 17 187 6.4 17.7 0.00 0.00 0.00 75 1011.8
20260509150532 17 183 6.4 17.7 0.00 0.00 0.00 75 1011.7
20260509150432 17 186 6.4 17.7 0.00 0.00 0.00 75 1011.7
20260509150331 17 187 6.4 14.5 0.00 0.00 0.00 76 1011.8
20260509150232 17 143 6.4 14.5 0.00 0.00 0.00 75 1011.8
20260509150132 17 150 6.4 14.5 0.00 0.00 0.00 76 1011.8
20260509150033 17 169 6.4 14.5 0.00 0.00 0.00 77 1011.8
20260509145932 17 189 6.4 14.5 0.00 0.00 0.00 76 1011.8
20260509145831 17 155 6.4 14.5 0.00 0.00 0.00 76 1011.8
20260509145732 17 205 6.4 14.5 0.00 0.00 0.00 76 1012.0
20260509145631 17 123 6.4 14.5 0.00 0.00 0.00 77 1012.0
20260509145532 17 113 6.4 14.5 0.00 0.00 0.00 76 1012.0
20260509145431 17 148 6.4 14.5 0.00 0.00 0.00 75 1012.1
20260509145333 17 256 6.4 14.5 0.00 0.00 0.00 76 1012.0
20260509145231 17 121 6.4 14.5 0.00 0.00 0.00 76 1012.1
20260509145131 17 141 6.4 14.5 0.00 0.00 0.00 78 1012.1
20260509145031 17 149 6.4 14.5 0.00 0.00 0.00 76 1012.1
20260509144931 17 138 6.4 14.5 0.00 0.00 0.00 76 1012.1
20260509144832 17 97 4.8 12.9 0.00 0.00 0.00 76 1012.2
20260509144732 17 173 4.8 12.9 0.00 0.00 0.00 76 1012.2
20260509144631 17 157 4.8 12.9 0.00 0.00 0.00 77 1012.2
20260509144532 17 155 4.8 12.9 0.00 0.00 0.00 76 1012.2
20260509144432 17 162 4.8 12.9 0.00 0.00 0.00 77 1012.2
20260509144331 17 184 4.8 11.3 0.00 0.00 0.00 77 1012.2
20260509144231 17 180 4.8 11.3 0.00 0.00 0.00 78 1012.1
20260509144133 17 151 3.2 11.3 0.00 0.00 0.00 78 1012.1
20260509144032 17 138 3.2 11.3 0.00 0.00 0.00 78 1012.2
20260509143931 17 134 3.2 11.3 0.00 0.00 0.00 79 1012.2
20260509143832 16 136 4.8 16.1 0.00 0.00 0.00 78 1012.1
20260509143731 16 140 4.8 16.1 0.00 0.00 0.00 78 1012.1
20260509143632 16 172 4.8 16.1 0.00 0.00 0.00 78 1012.1
20260509143531 16 132 4.8 16.1 0.00 0.00 0.00 78 1012.0
20260509143433 16 132 4.8 16.1 0.00 0.00 0.00 78 1012.0
20260509143327 16 146 4.8 16.1 0.00 0.00 0.00 78 1012.1
20260509143228 16 99 4.8 16.1 0.00 0.00 0.00 78 1012.1
20260509143128 16 158 4.8 16.1 0.00 0.00 0.00 77 1012.2
20260509143027 16 158 4.8 16.1 0.00 0.00 0.00 77 1012.2
20260509142927 16 152 4.8 16.1 0.00 0.00 0.00 77 1012.2
20260509142827 16 183 4.8 11.3 0.00 0.00 0.00 77 1012.2
20260509142728 16 173 4.8 11.3 0.00 0.00 0.00 77 1012.3
20260509142629 16 94 4.8 11.3 0.00 0.00 0.00 77 1012.3
20260509142527 16 294 4.8 11.3 0.00 0.00 0.00 77 1012.4
20260509142428 16 111 4.8 12.9 0.00 0.00 0.00 77 1012.3
20260509142328 16 196 4.8 12.9 0.00 0.00 0.00 77 1012.4
20260509142227 16 128 4.8 12.9 0.00 0.00 0.00 78 1012.4
20260509142128 16 129 4.8 12.9 0.00 0.00 0.00 78 1012.4
20260509142028 16 82 4.8 12.9 0.00 0.00 0.00 77 1012.3
20260509141927 16 0 4.8 12.9 0.00 0.00 0.00 78 1012.2
20260509141828 16 136 4.8 12.9 0.00 0.00 0.00 78 1012.2
20260509141728 16 82 4.8 12.9 0.00 0.00 0.00 79 1012.2
20260509141628 16 171 4.8 12.9 0.00 0.00 0.00 78 1012.2
20260509141527 16 170 4.8 12.9 0.00 0.00 0.00 77 1012.2
20260509141428 16 140 3.2 11.3 0.00 0.00 0.00 77 1012.2
20260509141329 16 143 3.2 11.3 0.00 0.00 0.00 77 1012.1
20260509141227 16 145 3.2 11.3 0.00 0.00 0.00 77 1012.2
20260509141129 16 121 3.2 11.3 0.00 0.00 0.00 77 1012.1
20260509141028 16 208 3.2 11.3 0.00 0.00 0.00 78 1012.2
20260509140927 16 202 3.2 11.3 0.00 0.00 0.00 77 1012.2
20260509140829 16 188 3.2 11.3 0.00 0.00 0.00 77 1012.2
20260509140727 16 187 3.2 11.3 0.00 0.00 0.00 78 1012.2
20260509140629 16 214 3.2 11.3 0.00 0.00 0.00 78 1012.1
20260509140528 16 355 4.8 12.9 0.00 0.00 0.00 78 1012.1
20260509140428 16 18 4.8 12.9 0.00 0.00 0.00 78 1012.1
20260509140328 16 321 3.2 12.9 0.00 0.00 0.00 77 1012.1
20260509140227 16 275 3.2 12.9 0.00 0.00 0.00 77 1012.1
20260509140129 16 169 3.2 12.9 0.00 0.00 0.00 77 1012.1
20260509140023 16 123 3.2 12.9 0.00 0.00 0.00 77 1012.1
20260509135924 16 130 3.2 12.9 0.00 0.00 0.00 76 1012.1
20260509135823 16 146 3.2 12.9 0.00 0.00 0.00 76 1012.1
20260509135725 16 150 3.2 12.9 0.00 0.00 0.00 76 1012.0
20260509135624 17 153 3.2 12.9 0.00 0.00 0.00 76 1011.8
20260509135523 17 160 3.2 12.9 0.00 0.00 0.00 77 1011.8
20260509135425 17 134 3.2 12.9 0.00 0.00 0.00 78 1011.8
20260509135323 17 134 3.2 12.9 0.00 0.00 0.00 77 1011.8
20260509135223 16 134 4.8 12.9 0.00 0.00 0.00 78 1011.8
20260509135124 16 130 4.8 12.9 0.00 0.00 0.00 77 1011.8
20260509135024 16 114 4.8 14.5 0.00 0.00 0.00 77 1011.8
20260509134924 16 216 4.8 14.5 0.00 0.00 0.00 77 1011.8
20260509134823 16 172 4.8 14.5 0.00 0.00 0.00 77 1011.7
20260509134724 16 144 6.4 14.5 0.00 0.00 0.00 77 1011.8
20260509134624 16 144 4.8 14.5 0.00 0.00 0.00 77 1011.8
20260509134523 16 198 4.8 14.5 0.00 0.00 0.00 77 1011.8
20260509134423 16 141 4.8 14.5 0.00 0.00 0.00 78 1011.7
20260509134323 16 117 4.8 14.5 0.00 0.00 0.00 78 1011.8
20260509134223 16 151 4.8 14.5 0.00 0.00 0.00 78 1011.7
20260509134125 16 113 4.8 14.5 0.00 0.00 0.00 77 1011.8
20260509134023 16 119 4.8 14.5 0.00 0.00 0.00 78 1011.8
20260509133923 16 202 4.8 14.5 0.00 0.00 0.00 78 1011.8
20260509133824 16 128 4.8 14.5 0.00 0.00 0.00 77 1011.8
20260509133724 16 169 3.2 14.5 0.00 0.00 0.00 79 1011.8
20260509133623 16 163 4.8 14.5 0.00 0.00 0.00 78 1011.7
20260509133525 16 134 4.8 14.5 0.00 0.00 0.00 78 1011.7
20260509133424 16 134 4.8 14.5 0.00 0.00 0.00 78 1011.8
20260509133324 16 137 4.8 11.3 0.00 0.00 0.00 79 1012.0
20260509133223 16 144 4.8 11.3 0.00 0.00 0.00 78 1012.0
20260509133123 16 147 4.8 11.3 0.00 0.00 0.00 79 1012.0
20260509133024 16 145 4.8 11.3 0.00 0.00 0.00 79 1012.1
20260509132924 16 157 4.8 17.7 0.00 0.00 0.00 79 1012.1
20260509132825 16 121 6.4 17.7 0.00 0.00 0.00 79 1012.0
20260509132719 16 121 6.4 17.7 0.00 0.00 0.00 79 1012.1
20260509132619 16 119 6.4 17.7 0.00 0.00 0.00 79 1012.1
20260509132521 16 154 6.4 17.7 0.00 0.00 0.00 79 1012.2
20260509132419 16 165 6.4 17.7 0.00 0.00 0.00 79 1012.1
20260509132320 16 147 6.4 17.7 0.00 0.00 0.00 80 1012.1
20260509132220 16 128 6.4 17.7 0.00 0.00 0.00 80 1012.1
20260509132120 16 136 8.0 17.7 0.00 0.00 0.00 79 1012.2
20260509132020 16 134 8.0 17.7 0.00 0.00 0.00 79 1012.1
20260509131920 16 151 6.4 14.5 0.00 0.00 0.00 79 1012.2
20260509131821 16 190 6.4 14.5 0.00 0.00 0.00 80 1012.3
20260509131720 16 115 6.4 14.5 0.00 0.00 0.00 80 1012.2
20260509131619 16 153 6.4 14.5 0.00 0.00 0.00 80 1012.1
20260509131515 16 171 4.8 14.5 0.00 0.00 0.00 79 1012.2
20260509131313 16 142 4.8 14.5 0.00 0.00 0.00 80 1012.2
20260509131215 16 178 4.8 14.5 0.00 0.00 0.00 79 1012.2
20260509131111 16 136 4.8 14.5 0.00 0.00 0.00 81 1012.2
20260509131008 16 115 4.8 14.5 0.00 0.00 0.00 80 1012.0
20260509130905 16 172 6.4 16.1 0.00 0.00 0.00 81 1012.0
20260509130806 16 155 6.4 16.1 0.00 0.00 0.00 81 1012.1
20260509130707 15 151 6.4 16.1 0.00 0.00 0.00 81 1012.0
20260509130606 15 178 6.4 16.1 0.00 0.00 0.00 80 1012.2
20260509130501 15 179 6.4 16.1 0.00 0.00 0.00 80 1012.3
20260509130400 15 192 6.4 16.1 0.00 0.00 0.00 80 1012.3
20260509130257 15 135 6.4 16.1 0.00 0.00 0.00 80 1012.2
20260509130159 15 120 6.4 16.1 0.00 0.00 0.00 79 1012.3
20260509130056 15 136 6.4 16.1 0.00 0.00 0.00 79 1012.4
20260509125950 15 136 4.8 14.5 0.00 0.00 0.00 80 1012.4
20260509125852 15 149 4.8 14.5 0.00 0.00 0.00 80 1012.4
20260509125752 15 175 4.8 11.3 0.00 0.00 0.00 80 1012.5
20260509125653 15 134 4.8 11.3 0.00 0.00 0.00 80 1012.5
20260509125550 15 150 3.2 11.3 0.00 0.00 0.00 80 1012.4
20260509125450 15 107 3.2 11.3 0.00 0.00 0.00 81 1012.6
20260509125350 15 115 1.6 9.7 0.00 0.00 0.00 80 1012.5
20260509125250 15 123 1.6 9.7 0.00 0.00 0.00 81 1012.5
20260509125150 15 160 1.6 8.0 0.00 0.00 0.00 81 1012.7
20260509125050 15 153 1.6 6.4 0.00 0.00 0.00 81 1012.7
20260509124951 15 130 1.6 4.8 0.00 0.00 0.00 82 1012.7
20260509124848 15 101 1.6 4.8 0.00 0.00 0.00 82 1012.8
20260509124749 15 110 1.6 6.4 0.00 0.00 0.00 82 1012.9
20260509124651 15 180 0.0 6.4 0.00 0.00 0.00 82 1012.9
20260509124549 15 180 0.0 6.4 0.00 0.00 0.00 82 1012.9
20260509124449 15 180 1.6 6.4 0.00 0.00 0.00 82 1012.9
20260509124350 15 180 1.6 6.4 0.00 0.00 0.00 82 1013.0
20260509124244 15 180 1.6 6.4 0.00 0.00 0.00 82 1012.9
20260509124143 15 183 1.6 6.4 0.00 0.00 0.00 82 1013.0
20260509124043 14 184 1.6 6.4 0.00 0.00 0.00 82 1013.0
20260509123942 14 184 1.6 6.4 0.00 0.00 0.00 82 1013.1
20260509123844 14 198 1.6 6.4 0.00 0.00 0.00 82 1013.0
20260509123741 14 211 1.6 6.4 0.00 0.00 0.00 82 1013.1
20260509123642 14 178 1.6 6.4 0.00 0.00 0.00 83 1013.0
20260509123542 14 172 1.6 6.4 0.00 0.00 0.00 83 1013.1
20260509123440 14 171 1.6 6.4 0.00 0.00 0.00 84 1013.0
20260509123337 14 152 0.0 6.4 0.00 0.00 0.00 83 1013.0
20260509123231 14 163 0.0 6.4 0.00 0.00 0.00 84 1012.9
20260509123131 14 288 0.0 3.2 0.00 0.00 0.00 84 1013.1
20260509123031 14 290 0.0 3.2 0.00 0.00 0.00 84 1013.0
20260509122929 14 297 0.0 3.2 0.00 0.00 0.00 84 1013.1
20260509122828 13 297 0.0 3.2 0.00 0.00 0.00 84 1013.1
20260509122723 13 298 0.0 3.2 0.00 0.00 0.00 84 1013.0
20260509122622 13 310 0.0 3.2 0.00 0.00 0.00 85 1013.0
20260509122524 13 61 0.0 3.2 0.00 0.00 0.00 85 1013.0
20260509122425 13 61 0.0 3.2 0.00 0.00 0.00 85 1013.0
20260509122321 13 61 0.0 3.2 0.00 0.00 0.00 85 1013.0
20260509122220 13 61 0.0 3.2 0.00 0.00 0.00 85 1013.0
20260509122120 13 61 0.0 3.2 0.00 0.00 0.00 85 1013.0
20260509122019 13 61 0.0 3.2 0.00 0.00 0.00 86 1013.0
20260509121919 13 57 0.0 4.8 0.00 0.00 0.00 86 1013.0
20260509121816 13 44 0.0 4.8 0.00 0.00 0.00 85 1012.9
20260509121706 13 44 0.0 4.8 0.00 0.00 0.00 86 1012.9
20260509121606 13 46 0.0 4.8 0.00 0.00 0.00 86 1012.9
20260509121506 13 46 0.0 4.8 0.00 0.00 0.00 87 1012.9
20260509121406 13 44 0.0 4.8 0.00 0.00 0.00 86 1012.9
20260509121306 13 317 0.0 4.8 0.00 0.00 0.00 86 1012.9
20260509121200 13 317 0.0 4.8 0.00 0.00 0.00 86 1012.8
20260509121100 13 317 0.0 4.8 0.00 0.00 0.00 87 1012.8
20260509120958 13 317 0.0 4.8 0.00 0.00 0.00 87 1012.9
20260509120900 13 316 0.0 3.2 0.00 0.00 0.00 87 1012.8
20260509120800 12 316 0.0 3.2 0.00 0.00 0.00 88 1012.8
20260509120656 12 316 0.0 3.2 0.00 0.00 0.00 88 1012.9
20260509120553 12 316 0.0 3.2 0.00 0.00 0.00 88 1012.9
20260509120454 12 316 0.0 3.2 0.00 0.00 0.00 88 1013.0
20260509120354 12 315 0.0 3.2 0.00 0.00 0.00 88 1012.8
20260509120253 12 315 0.0 3.2 0.00 0.00 0.00 88 1012.9
20260509120148 12 315 0.0 3.2 0.00 0.00 0.00 88 1012.8
20260509120043 12 319 0.0 3.2 0.00 0.00 0.00 87 1012.9
20260509115943 12 319 0.0 3.2 0.00 0.00 0.00 88 1012.8
20260509115844 12 313 0.0 3.2 0.00 0.00 0.00 88 1012.9
20260509115744 12 355 1.6 4.8 0.00 0.00 0.00 88 1012.9
20260509115643 12 338 1.6 4.8 0.00 0.00 0.00 88 1012.8
20260509115542 12 338 1.6 4.8 0.00 0.00 0.00 88 1013.0
20260509115438 12 336 1.6 4.8 0.00 0.00 0.00 88 1013.0
20260509115339 12 336 1.6 4.8 0.00 0.00 0.00 88 1012.9
20260509115238 12 336 1.6 4.8 0.00 0.00 0.00 88 1012.9
20260509115135 12 336 1.6 4.8 0.00 0.00 0.00 88 1012.8
20260509115037 12 331 1.6 4.8 0.00 0.00 0.00 88 1012.9
20260509114935 12 331 1.6 4.8 0.00 0.00 0.00 88 1012.9
20260509114835 12 331 1.6 4.8 0.00 0.00 0.00 89 1012.9
20260509114732 12 110 1.6 6.4 0.00 0.00 0.00 88 1012.9
20260509114624 12 114 1.6 6.4 0.00 0.00 0.00 88 1012.8
20260509114525 11 179 1.6 6.4 0.00 0.00 0.00 88 1012.8
20260509114423 11 185 1.6 8.0 0.00 0.00 0.00 88 1012.8
20260509114323 11 178 3.2 8.0 0.00 0.00 0.00 88 1012.7
20260509114222 11 168 3.2 8.0 0.00 0.00 0.00 88 1012.7
20260509114115 11 168 3.2 8.0 0.00 0.00 0.00 88 1012.5
20260509114017 11 171 3.2 8.0 0.00 0.00 0.00 88 1012.5
20260509113916 11 171 3.2 8.0 0.00 0.00 0.00 88 1012.5
20260509113815 11 172 3.2 8.0 0.00 0.00 0.00 88 1012.4
20260509113716 11 173 3.2 8.0 0.00 0.00 0.00 88 1012.4
20260509113617 11 197 3.2 8.0 0.00 0.00 0.00 88 1012.4
20260509113512 11 197 3.2 8.0 0.00 0.00 0.00 88 1012.4
20260509113411 11 163 3.2 8.0 0.00 0.00 0.00 88 1012.4
20260509113313 11 164 3.2 8.0 0.00 0.00 0.00 88 1012.4
20260509113210 11 164 3.2 8.0 0.00 0.00 0.00 88 1012.4
20260509113100 11 164 3.2 8.0 0.00 0.00 0.00 88 1012.4
20260509113000 11 150 1.6 8.0 0.00 0.00 0.00 88 1012.5
20260509112900 11 180 1.6 8.0 0.00 0.00 0.00 88 1012.5
20260509112800 11 157 1.6 6.4 0.00 0.00 0.00 88 1012.4
20260509112700 11 155 1.6 6.4 0.00 0.00 0.00 88 1012.5
20260509112559 11 159 1.6 6.4 0.00 0.00 0.00 88 1012.5
20260509112458 11 159 1.6 6.4 0.00 0.00 0.00 88 1012.5
20260509112355 11 163 1.6 6.4 0.00 0.00 0.00 88 1012.4
20260509112255 11 183 1.6 4.8 0.00 0.00 0.00 88 1012.4
20260509112154 11 192 0.0 4.8 0.00 0.00 0.00 87 1012.5
20260509112052 11 193 0.0 4.8 0.00 0.00 0.00 87 1012.5
20260509111952 11 194 1.6 4.8 0.00 0.00 0.00 87 1012.4
20260509111851 11 194 1.6 8.0 0.00 0.00 0.00 87 1012.4
20260509111748 11 194 1.6 8.0 0.00 0.00 0.00 87 1012.5
20260509111647 11 195 1.6 8.0 0.00 0.00 0.00 87 1012.4
20260509111540 11 195 1.6 8.0 0.00 0.00 0.00 87 1012.5
20260509111439 11 195 1.6 8.0 0.00 0.00 0.00 87 1012.4
20260509111338 11 192 1.6 8.0 0.00 0.00 0.00 87 1012.4
20260509111238 11 192 3.2 9.7 0.00 0.00 0.00 87 1012.4
20260509111138 11 192 3.2 9.7 0.00 0.00 0.00 87 1012.3
20260509111037 11 192 3.2 9.7 0.00 0.00 0.00 87 1012.3
20260509110936 11 188 3.2 9.7 0.00 0.00 0.00 87 1012.3
20260509110832 11 180 3.2 9.7 0.00 0.00 0.00 87 1012.2
20260509110734 11 136 3.2 11.3 0.00 0.00 0.00 87 1012.2
20260509110632 11 136 3.2 11.3 0.00 0.00 0.00 87 1012.2
20260509110530 11 153 4.8 11.3 0.00 0.00 0.00 87 1012.2
20260509110429 11 153 4.8 11.3 0.00 0.00 0.00 87 1012.1
20260509110326 11 194 4.8 11.3 0.00 0.00 0.00 87 1012.1
20260509110228 11 155 4.8 11.3 0.00 0.00 0.00 88 1012.1
20260509110125 11 159 4.8 11.3 0.00 0.00 0.00 88 1012.1
20260509110015 11 159 4.8 11.3 0.00 0.00 0.00 88 1012.0
20260509105915 11 150 4.8 11.3 0.00 0.00 0.00 88 1011.8
20260509105816 11 145 4.8 11.3 0.00 0.00 0.00 88 1012.0
20260509105715 11 144 4.8 11.3 0.00 0.00 0.00 88 1012.0
20260509105616 11 140 4.8 11.3 0.00 0.00 0.00 88 1012.0
20260509105511 11 123 4.8 11.3 0.00 0.00 0.00 88 1012.0
20260509105410 11 157 4.8 11.3 0.00 0.00 0.00 88 1012.1
20260509105310 11 140 4.8 11.3 0.00 0.00 0.00 88 1012.1
20260509105210 11 162 4.8 11.3 0.00 0.00 0.00 88 1012.1
20260509105109 11 154 4.8 11.3 0.00 0.00 0.00 88 1012.2
20260509105004 11 175 4.8 11.3 0.00 0.00 0.00 88 1012.2
20260509104903 11 172 4.8 11.3 0.00 0.00 0.00 88 1012.2
20260509104802 11 169 4.8 11.3 0.00 0.00 0.00 88 1012.1
20260509104703 11 194 4.8 11.3 0.00 0.00 0.00 88 1012.1
20260509104604 11 167 4.8 9.7 0.00 0.00 0.00 88 1012.1
20260509104454 11 167 4.8 9.7 0.00 0.00 0.00 88 1012.1
20260509104353 11 167 4.8 9.7 0.00 0.00 0.00 88 1012.1
20260509104254 11 165 4.8 9.7 0.00 0.00 0.00 88 1012.1
20260509104154 11 163 4.8 9.7 0.00 0.00 0.00 88 1012.0
20260509104053 11 178 3.2 9.7 0.00 0.00 0.00 88 1012.0
20260509103952 11 138 3.2 9.7 0.00 0.00 0.00 88 1012.1
20260509103852 11 138 3.2 9.7 0.00 0.00 0.00 88 1012.1
20260509103749 10 140 3.2 9.7 0.00 0.00 0.00 88 1012.2
20260509103650 10 169 1.6 8.0 0.00 0.00 0.00 87 1012.1
20260509103547 10 169 1.6 8.0 0.00 0.00 0.00 87 1012.1
20260509103444 10 155 1.6 6.4 0.00 0.00 0.00 87 1012.1
20260509103344 10 185 1.6 6.4 0.00 0.00 0.00 87 1012.0
20260509103244 10 200 1.6 6.4 0.00 0.00 0.00 87 1012.0
20260509103143 11 235 0.0 3.2 0.00 0.00 0.00 87 1012.0
20260509103042 11 238 0.0 3.2 0.00 0.00 0.00 87 1012.1
20260509102933 11 237 1.6 4.8 0.00 0.00 0.00 87 1012.0
20260509102832 11 222 1.6 4.8 0.00 0.00 0.00 87 1012.1
20260509102731 11 222 1.6 4.8 0.00 0.00 0.00 87 1012.0
20260509102631 11 223 0.0 4.8 0.00 0.00 0.00 86 1012.0
20260509102532 11 223 1.6 4.8 0.00 0.00 0.00 86 1012.0
20260509102432 11 223 1.6 4.8 0.00 0.00 0.00 86 1011.8
20260509102328 11 223 0.0 4.8 0.00 0.00 0.00 86 1012.0
20260509102230 11 223 0.0 4.8 0.00 0.00 0.00 86 1011.8
20260509102127 11 222 0.0 4.8 0.00 0.00 0.00 86 1011.8
20260509102026 11 221 0.0 4.8 0.00 0.00 0.00 86 1011.8
20260509101924 11 244 0.0 4.8 0.00 0.00 0.00 86 1011.7
20260509101823 11 244 0.0 4.8 0.00 0.00 0.00 86 1011.7
20260509101723 11 244 0.0 4.8 0.00 0.00 0.00 86 1011.7
20260509101622 11 244 1.6 6.4 0.00 0.00 0.00 86 1011.7
20260509101520 11 242 1.6 8.0 0.00 0.00 0.00 86 1011.7
20260509101410 11 242 1.6 8.0 0.00 0.00 0.00 86 1011.8
20260509101310 11 242 1.6 8.0 0.00 0.00 0.00 86 1011.7
20260509101211 11 242 1.6 8.0 0.00 0.00 0.00 86 1011.6
20260509101111 11 242 1.6 8.0 0.00 0.00 0.00 86 1011.6
20260509101009 11 165 1.6 8.0 0.00 0.00 0.00 86 1011.6
20260509100905 11 165 1.6 8.0 0.00 0.00 0.00 86 1011.6
20260509100806 11 165 1.6 8.0 0.00 0.00 0.00 86 1011.6
20260509100705 11 165 1.6 8.0 0.00 0.00 0.00 86 1011.7
20260509100605 11 163 0.0 6.4 0.00 0.00 0.00 85 1011.7
20260509100503 11 161 1.6 6.4 0.00 0.00 0.00 85 1011.6
20260509100402 11 161 1.6 6.4 0.00 0.00 0.00 85 1011.6
20260509100301 11 161 0.0 6.4 0.00 0.00 0.00 85 1011.6
20260509100159 11 161 0.0 6.4 0.00 0.00 0.00 85 1011.6
20260509100059 11 161 0.0 3.2 0.00 0.00 0.00 85 1011.6
20260509095957 11 161 0.0 3.2 0.00 0.00 0.00 85 1011.6
20260509095851 11 160 0.0 3.2 0.00 0.00 0.00 85 1011.6
20260509095751 11 161 0.0 3.2 0.00 0.00 0.00 85 1011.6
20260509095652 11 161 0.0 3.2 0.00 0.00 0.00 85 1011.6
20260509095550 11 161 0.0 3.2 0.00 0.00 0.00 85 1011.6
20260509095447 11 161 0.0 3.2 0.00 0.00 0.00 85 1011.6
20260509095348 11 160 0.0 3.2 0.00 0.00 0.00 85 1011.6
20260509095246 11 160 0.0 3.2 0.00 0.00 0.00 85 1011.6
20260509095146 11 160 0.0 3.2 0.00 0.00 0.00 85 1011.6
20260509095044 11 160 0.0 3.2 0.00 0.00 0.00 84 1011.6
20260509094941 11 160 0.0 3.2 0.00 0.00 0.00 84 1011.6
20260509094838 11 160 0.0 3.2 0.00 0.00 0.00 84 1011.7
20260509094735 11 160 0.0 3.2 0.00 0.00 0.00 84 1011.6
20260509094636 11 160 0.0 3.2 0.00 0.00 0.00 84 1011.6
20260509094535 11 160 0.0 3.2 0.00 0.00 0.00 84 1011.5
20260509094436 11 160 0.0 3.2 0.00 0.00 0.00 84 1011.5
20260509094330 11 160 0.0 3.2 0.00 0.00 0.00 84 1011.5
20260509094230 11 160 0.0 3.2 0.00 0.00 0.00 84 1011.4
20260509094130 11 160 1.6 6.4 0.00 0.00 0.00 84 1011.5
20260509094027 11 160 1.6 6.4 0.00 0.00 0.00 84 1011.5
20260509093926 11 160 1.6 6.4 0.00 0.00 0.00 84 1011.4
20260509093826 11 160 1.6 6.4 0.00 0.00 0.00 84 1011.4
20260509093724 11 159 1.6 6.4 0.00 0.00 0.00 84 1011.4
20260509093624 11 159 1.6 8.0 0.00 0.00 0.00 84 1011.5
20260509093523 11 159 1.6 8.0 0.00 0.00 0.00 84 1011.4
20260509093419 11 159 1.6 8.0 0.00 0.00 0.00 84 1011.5
20260509093321 11 159 1.6 8.0 0.00 0.00 0.00 84 1011.6
20260509093217 11 159 1.6 8.0 0.00 0.00 0.00 84 1011.6
20260509093117 11 159 1.6 8.0 0.00 0.00 0.00 84 1011.6
20260509093016 11 159 1.6 8.0 0.00 0.00 0.00 84 1011.6
20260509092919 11 153 0.0 8.0 0.00 0.00 0.00 84 1011.6
20260509092804 11 153 0.0 8.0 0.00 0.00 0.00 84 1011.6
20260509092704 11 153 0.0 8.0 0.00 0.00 0.00 84 1011.6
20260509092603 11 242 0.0 0.0 0.00 0.00 0.00 84 1011.6
20260509092504 11 259 0.0 0.0 0.00 0.00 0.00 83 1011.6
20260509092404 11 263 0.0 0.0 0.00 0.00 0.00 83 1011.7
20260509092300 11 263 0.0 0.0 0.00 0.00 0.00 83 1011.8
20260509092157 11 263 0.0 0.0 0.00 0.00 0.00 83 1012.0
20260509092057 11 263 0.0 0.0 0.00 0.00 0.00 83 1012.0
20260509091956 11 265 0.0 0.0 0.00 0.00 0.00 83 1012.0
20260509091857 11 265 0.0 0.0 0.00 0.00 0.00 83 1012.1
20260509091757 11 265 0.0 0.0 0.00 0.00 0.00 83 1012.0
20260509091655 11 226 0.0 0.0 0.00 0.00 0.00 83 1012.0
20260509091554 11 227 0.0 0.0 0.00 0.00 0.00 83 1012.1
20260509091454 11 227 0.0 1.6 0.00 0.00 0.00 83 1012.1
20260509091352 11 227 0.0 1.6 0.00 0.00 0.00 83 1012.0
20260509091245 11 227 0.0 1.6 0.00 0.00 0.00 83 1011.8
20260509091146 11 227 0.0 1.6 0.00 0.00 0.00 83 1011.8
20260509091046 11 227 0.0 1.6 0.00 0.00 0.00 83 1011.8
20260509090943 11 227 0.0 1.6 0.00 0.00 0.00 83 1011.8
20260509090841 11 227 0.0 4.8 0.00 0.00 0.00 83 1011.7
20260509090742 11 226 0.0 4.8 0.00 0.00 0.00 83 1011.8
20260509090639 11 229 0.0 4.8 0.00 0.00 0.00 83 1011.8
20260509090540 11 188 0.0 4.8 0.00 0.00 0.00 83 1011.8
20260509090438 11 188 0.0 4.8 0.00 0.00 0.00 83 1011.8
20260509090336 11 188 0.0 4.8 0.00 0.00 0.00 83 1011.8
20260509090233 11 188 1.6 4.8 0.00 0.00 0.00 83 1011.8
20260509090129 11 188 1.6 4.8 0.00 0.00 0.00 83 1011.7
20260509090029 11 188 1.6 4.8 0.00 0.00 0.00 83 1011.7
20260509085929 11 188 1.6 4.8 0.00 0.00 0.00 83 1011.7
20260509085829 11 188 1.6 3.2 0.00 0.00 0.00 83 1011.7
20260509085722 11 188 1.6 3.2 0.00 0.00 0.00 83 1011.7
20260509085623 11 188 1.6 3.2 0.00 0.00 0.00 83 1011.7
20260509085523 11 188 1.6 3.2 0.00 0.00 0.00 83 1011.7
20260509085421 11 188 1.6 8.0 0.00 0.00 0.00 83 1011.7
20260509085320 11 192 1.6 8.0 0.00 0.00 0.00 83 1011.7
20260509085219 11 192 1.6 8.0 0.00 0.00 0.00 83 1011.7
20260509085118 11 192 1.6 8.0 0.00 0.00 0.00 83 1011.7
20260509085017 11 192 1.6 8.0 0.00 0.00 0.00 83 1011.8
20260509084915 11 192 1.6 8.0 0.00 0.00 0.00 83 1011.7
20260509084814 11 192 1.6 8.0 0.00 0.00 0.00 83 1011.8
20260509084708 11 192 1.6 8.0 0.00 0.00 0.00 83 1011.8
20260509084610 11 192 1.6 8.0 0.00 0.00 0.00 83 1011.8
20260509084508 11 185 1.6 8.0 0.00 0.00 0.00 83 1011.8
20260509084410 11 208 1.6 8.0 0.00 0.00 0.00 83 1011.8
20260509084307 11 210 1.6 8.0 0.00 0.00 0.00 82 1011.7
20260509084159 11 210 1.6 8.0 0.00 0.00 0.00 82 1011.7
20260509084100 11 269 1.6 8.0 0.00 0.00 0.00 82 1011.7
20260509083958 11 145 1.6 8.0 0.00 0.00 0.00 82 1011.7
20260509083858 11 145 1.6 8.0 0.00 0.00 0.00 82 1011.7
20260509083756 11 145 3.2 8.0 0.00 0.00 0.00 82 1011.8
20260509083652 11 145 3.2 8.0 0.00 0.00 0.00 82 1011.8
20260509083548 11 145 3.2 8.0 0.00 0.00 0.00 82 1011.8
20260509083449 11 145 3.2 8.0 0.00 0.00 0.00 82 1012.0
20260509083351 11 146 1.6 8.0 0.00 0.00 0.00 82 1011.8
20260509083250 11 155 1.6 8.0 0.00 0.00 0.00 82 1011.8
20260509083145 11 155 1.6 8.0 0.00 0.00 0.00 82 1011.8
20260509083046 11 155 1.6 8.0 0.00 0.00 0.00 82 1012.0
20260509082945 11 155 1.6 6.4 0.00 0.00 0.00 82 1012.0
20260509082844 11 155 1.6 4.8 0.00 0.00 0.00 82 1012.0
20260509082744 11 155 0.0 4.8 0.00 0.00 0.00 81 1012.0
20260509082637 11 154 0.0 4.8 0.00 0.00 0.00 81 1012.0
20260509082537 11 154 0.0 3.2 0.00 0.00 0.00 81 1012.1
20260509082437 11 154 0.0 3.2 0.00 0.00 0.00 81 1012.1
20260509082335 11 155 0.0 4.8 0.00 0.00 0.00 81 1012.1
20260509082234 11 155 1.6 4.8 0.00 0.00 0.00 81 1012.2
20260509082132 11 155 1.6 4.8 0.00 0.00 0.00 81 1012.2
20260509082031 11 155 1.6 4.8 0.00 0.00 0.00 81 1012.2
20260509081931 11 155 1.6 4.8 0.00 0.00 0.00 81 1012.2
20260509081830 11 155 1.6 4.8 0.00 0.00 0.00 81 1012.3
20260509081727 11 155 1.6 4.8 0.00 0.00 0.00 81 1012.3
20260509081626 11 155 1.6 4.8 0.00 0.00 0.00 81 1012.3
20260509081526 11 155 1.6 4.8 0.00 0.00 0.00 81 1012.4
20260509081423 11 155 1.6 4.8 0.00 0.00 0.00 81 1012.3
20260509081324 11 111 1.6 4.8 0.00 0.00 0.00 80 1012.3
20260509081222 11 103 0.0 4.8 0.00 0.00 0.00 80 1012.3
20260509081112 11 103 0.0 4.8 0.00 0.00 0.00 80 1012.4
20260509081011 11 101 0.0 12.9 0.00 0.00 0.00 80 1012.3
20260509080911 11 355 0.0 12.9 0.00 0.00 0.00 80 1012.4
20260509080812 11 355 0.0 12.9 0.00 0.00 0.00 80 1012.3
20260509080712 11 355 0.0 12.9 0.00 0.00 0.00 81 1012.4
20260509080605 11 355 1.6 12.9 0.00 0.00 0.00 80 1012.4
20260509080504 11 355 1.6 12.9 0.00 0.00 0.00 80 1012.4
20260509080406 11 355 1.6 12.9 0.00 0.00 0.00 80 1012.4
20260509080305 11 355 1.6 12.9 0.00 0.00 0.00 80 1012.5
20260509080205 11 355 3.2 12.9 0.00 0.00 0.00 80 1012.5
20260509080100 11 355 3.2 12.9 0.00 0.00 0.00 80 1012.5
20260509080002 11 355 3.2 14.5 0.00 0.00 0.00 81 1012.5
20260509075900 11 355 3.2 14.5 0.00 0.00 0.00 80 1012.4
20260509075802 11 355 3.2 14.5 0.00 0.00 0.00 80 1012.4
20260509075659 11 147 4.8 14.5 0.00 0.00 0.00 81 1012.4
20260509075551 11 147 4.8 14.5 0.00 0.00 0.00 80 1012.4
20260509075450 11 150 4.8 14.5 0.00 0.00 0.00 81 1012.5
20260509075351 11 147 4.8 14.5 0.00 0.00 0.00 80 1012.5
20260509075252 11 132 4.8 14.5 0.00 0.00 0.00 80 1012.5
20260509075149 11 165 4.8 14.5 0.00 0.00 0.00 81 1012.5
20260509075045 11 124 4.8 14.5 0.00 0.00 0.00 81 1012.4
20260509074944 11 182 4.8 14.5 0.00 0.00 0.00 80 1012.5
20260509074845 11 175 4.8 14.5 0.00 0.00 0.00 81 1012.4
20260509074745 11 180 4.8 14.5 0.00 0.00 0.00 81 1012.4
20260509074644 11 173 4.8 14.5 0.00 0.00 0.00 80 1012.4
20260509074540 11 194 4.8 14.5 0.00 0.00 0.00 80 1012.5
20260509074440 11 164 4.8 14.5 0.00 0.00 0.00 81 1012.5
20260509074339 11 189 3.2 14.5 0.00 0.00 0.00 81 1012.4
20260509074239 11 166 3.2 14.5 0.00 0.00 0.00 81 1012.5
20260509074138 11 171 3.2 14.5 0.00 0.00 0.00 81 1012.4
20260509074029 11 171 3.2 14.5 0.00 0.00 0.00 81 1012.4
20260509073930 11 211 1.6 11.3 0.00 0.00 0.00 81 1012.3
20260509073829 11 153 1.6 11.3 0.00 0.00 0.00 81 1012.4
20260509073729 11 160 1.6 8.0 0.00 0.00 0.00 81 1012.4
20260509073628 11 171 1.6 8.0 0.00 0.00 0.00 81 1012.4
20260509073523 11 177 1.6 8.0 0.00 0.00 0.00 81 1012.5
20260509073421 11 177 1.6 8.0 0.00 0.00 0.00 81 1012.5
20260509073321 11 178 3.2 8.0 0.00 0.00 0.00 81 1012.5
20260509073220 11 178 3.2 8.0 0.00 0.00 0.00 81 1012.5
20260509073122 12 178 3.2 8.0 0.00 0.00 0.00 81 1012.5
20260509073016 12 178 3.2 8.0 0.00 0.00 0.00 81 1012.5
20260509072915 11 178 3.2 14.5 0.00 0.00 0.00 81 1012.5
20260509072816 12 167 3.2 14.5 0.00 0.00 0.00 81 1012.4
20260509072714 12 163 3.2 14.5 0.00 0.00 0.00 81 1012.4
20260509072616 12 155 4.8 14.5 0.00 0.00 0.00 81 1012.4
20260509072504 12 154 4.8 14.5 0.00 0.00 0.00 81 1012.5
20260509072406 12 155 4.8 14.5 0.00 0.00 0.00 81 1012.5
20260509072306 12 154 4.8 14.5 0.00 0.00 0.00 81 1012.4
20260509072205 12 142 4.8 14.5 0.00 0.00 0.00 81 1012.4
20260509072106 12 142 4.8 14.5 0.00 0.00 0.00 81 1012.5
20260509072000 12 173 4.8 12.9 0.00 0.00 0.00 81 1012.5
20260509071901 12 170 4.8 14.5 0.00 0.00 0.00 81 1012.3
20260509071800 12 244 4.8 14.5 0.00 0.00 0.00 81 1012.4
20260509071659 12 136 4.8 14.5 0.00 0.00 0.00 81 1012.4
20260509071600 12 176 4.8 14.5 0.00 0.00 0.00 81 1012.4
20260509071454 12 172 4.8 14.5 0.00 0.00 0.00 81 1012.5
20260509071353 12 171 4.8 14.5 0.00 0.00 0.00 81 1012.5
20260509071253 12 171 6.4 14.5 0.00 0.00 0.00 81 1012.5
20260509071153 12 163 6.4 14.5 0.00 0.00 0.00 81 1012.5
20260509071053 12 190 6.4 14.5 0.00 0.00 0.00 81 1012.5
20260509070944 12 161 4.8 14.5 0.00 0.00 0.00 81 1012.5
20260509070842 12 144 4.8 11.3 0.00 0.00 0.00 81 1012.5
20260509070743 12 161 4.8 11.3 0.00 0.00 0.00 81 1012.6
20260509070643 12 163 4.8 11.3 0.00 0.00 0.00 81 1012.6
20260509070544 12 163 4.8 11.3 0.00 0.00 0.00 81 1012.6
20260509070440 12 119 4.8 11.3 0.00 0.00 0.00 81 1012.7
20260509070337 12 175 4.8 11.3 0.00 0.00 0.00 80 1012.7
20260509070236 12 135 4.8 11.3 0.00 0.00 0.00 80 1012.8
20260509070137 12 138 4.8 11.3 0.00 0.00 0.00 80 1012.8
20260509070038 12 157 4.8 12.9 0.00 0.00 0.00 80 1012.8
20260509065931 12 138 4.8 12.9 0.00 0.00 0.00 80 1012.8
20260509065830 12 169 4.8 12.9 0.00 0.00 0.00 80 1012.8
20260509065731 12 134 4.8 12.9 0.00 0.00 0.00 80 1012.8
20260509065632 12 160 3.2 12.9 0.00 0.00 0.00 80 1012.7
20260509065532 12 168 3.2 12.9 0.00 0.00 0.00 79 1012.8
20260509065420 12 156 4.8 12.9 0.00 0.00 0.00 79 1012.9
20260509065321 12 152 4.8 12.9 0.00 0.00 0.00 79 1012.9
20260509065221 12 151 4.8 12.9 0.00 0.00 0.00 79 1012.9
20260509065120 12 167 4.8 12.9 0.00 0.00 0.00 80 1012.9
20260509065021 12 169 4.8 12.9 0.00 0.00 0.00 80 1012.9
20260509064922 12 177 4.8 12.9 0.00 0.00 0.00 80 1013.0
20260509064820 12 190 6.4 14.5 0.00 0.00 0.00 80 1013.0
20260509064717 12 134 6.4 14.5 0.00 0.00 0.00 80 1013.0
20260509064618 12 134 6.4 14.5 0.00 0.00 0.00 79 1012.9
20260509064515 12 174 6.4 14.5 0.00 0.00 0.00 79 1012.9
20260509064410 12 164 4.8 14.5 0.00 0.00 0.00 80 1012.9
20260509064308 12 146 4.8 14.5 0.00 0.00 0.00 80 1013.0
20260509064208 12 167 4.8 14.5 0.00 0.00 0.00 80 1013.0
20260509064110 12 168 4.8 14.5 0.00 0.00 0.00 80 1013.0
20260509064027 12 184 4.8 14.5 0.00 0.00 0.00 80 1013.0
20260509063900 12 184 4.8 14.5 0.00 0.00 0.00 80 1013.1
20260509063800 12 130 4.8 11.3 0.00 0.00 0.00 80 1013.1
20260509063700 12 144 4.8 11.3 0.00 0.00 0.00 80 1013.2
20260509063559 12 142 4.8 11.3 0.00 0.00 0.00 80 1013.3
20260509063459 12 142 4.8 11.3 0.00 0.00 0.00 80 1013.2
20260509063357 12 148 4.8 11.3 0.00 0.00 0.00 80 1013.2
20260509063257 12 146 4.8 11.3 0.00 0.00 0.00 80 1013.3
20260509063155 12 154 4.8 12.9 0.00 0.00 0.00 80 1013.3
20260509063056 12 156 6.4 12.9 0.00 0.00 0.00 80 1013.3
20260509062953 12 153 4.8 12.9 0.00 0.00 0.00 80 1013.3
20260509062848 12 130 4.8 12.9 0.00 0.00 0.00 79 1013.4
20260509062748 12 165 6.4 12.9 0.00 0.00 0.00 79 1013.3
20260509062648 12 166 4.8 17.7 0.00 0.00 0.00 79 1013.4
20260509062547 12 161 6.4 17.7 0.00 0.00 0.00 79 1013.4
20260509062447 12 128 4.8 17.7 0.00 0.00 0.00 79 1013.4
20260509062346 12 165 4.8 17.7 0.00 0.00 0.00 79 1013.4
20260509062246 12 166 4.8 17.7 0.00 0.00 0.00 79 1013.3
20260509062142 12 192 4.8 17.7 0.00 0.00 0.00 79 1013.4
20260509062046 12 210 4.8 17.7 0.00 0.00 0.00 79 1013.4
20260509061944 12 183 4.8 17.7 0.00 0.00 0.00 79 1013.3
20260509061844 12 161 4.8 17.7 0.00 0.00 0.00 79 1013.4
20260509061742 12 171 4.8 17.7 0.00 0.00 0.00 79 1013.3
20260509061644 12 169 4.8 12.9 0.00 0.00 0.00 79 1013.4
20260509061542 12 169 4.8 12.9 0.00 0.00 0.00 79 1013.3
20260509061441 12 161 4.8 14.5 0.00 0.00 0.00 79 1013.3
20260509061340 12 176 4.8 14.5 0.00 0.00 0.00 79 1013.4
20260509061240 12 125 4.8 14.5 0.00 0.00 0.00 79 1013.3
20260509061142 12 166 4.8 14.5 0.00 0.00 0.00 79 1013.4
20260509061038 12 167 4.8 14.5 0.00 0.00 0.00 79 1013.4
20260509060939 12 180 4.8 14.5 0.00 0.00 0.00 79 1013.4
20260509060838 12 134 4.8 14.5 0.00 0.00 0.00 79 1013.4
20260509060740 12 119 4.8 14.5 0.00 0.00 0.00 79 1013.4
20260509060632 12 161 4.8 14.5 0.00 0.00 0.00 79 1013.4
20260509060532 12 128 4.8 14.5 0.00 0.00 0.00 79 1013.4
20260509060433 12 153 4.8 11.3 0.00 0.00 0.00 79 1013.4
20260509060334 12 176 4.8 14.5 0.00 0.00 0.00 79 1013.4
20260509060234 12 147 4.8 14.5 0.00 0.00 0.00 79 1013.4
20260509060130 12 142 4.8 14.5 0.00 0.00 0.00 79 1013.3
20260509060027 12 141 4.8 14.5 0.00 0.00 0.00 78 1013.4
20260509055928 12 139 4.8 14.5 0.00 0.00 0.00 78 1013.4
20260509055828 12 154 4.8 14.5 0.00 0.00 0.00 78 1013.4
20260509055727 12 117 4.8 16.1 0.00 0.00 0.00 78 1013.4
20260509055622 12 115 4.8 16.1 0.00 0.00 0.00 78 1013.5
20260509055521 13 155 4.8 16.1 0.00 0.00 0.00 78 1013.5
20260509055421 13 137 4.8 16.1 0.00 0.00 0.00 78 1013.5
20260509055322 13 157 4.8 16.1 0.00 0.00 0.00 78 1013.4
20260509055221 13 161 4.8 16.1 0.00 0.00 0.00 77 1013.5
20260509055120 13 111 4.8 16.1 0.00 0.00 0.00 77 1013.5
20260509055022 13 180 4.8 16.1 0.00 0.00 0.00 77 1013.7
20260509054918 13 205 4.8 16.1 0.00 0.00 0.00 77 1013.7
20260509054820 13 188 4.8 16.1 0.00 0.00 0.00 77 1013.7
20260509054719 13 153 6.4 16.1 0.00 0.00 0.00 77 1013.7
20260509054616 13 165 4.8 16.1 0.00 0.00 0.00 78 1013.8
20260509054516 13 137 4.8 16.1 0.00 0.00 0.00 77 1013.8
20260509054412 13 161 4.8 16.1 0.00 0.00 0.00 77 1013.8
20260509054312 13 190 4.8 16.1 0.00 0.00 0.00 77 1013.7
20260509054213 13 158 4.8 11.3 0.00 0.00 0.00 78 1013.8
20260509054111 13 165 4.8 14.5 0.00 0.00 0.00 77 1013.8
20260509054009 13 196 4.8 14.5 0.00 0.00 0.00 77 1013.9
20260509053910 13 134 4.8 14.5 0.00 0.00 0.00 77 1013.8
20260509053810 13 160 4.8 14.5 0.00 0.00 0.00 77 1013.9
20260509053709 13 172 4.8 14.5 0.00 0.00 0.00 77 1013.9
20260509053609 13 162 4.8 14.5 0.00 0.00 0.00 77 1013.8
20260509053509 13 125 4.8 14.5 0.00 0.00 0.00 77 1013.9
20260509053403 13 141 4.8 14.5 0.00 0.00 0.00 77 1013.9
20260509053303 13 180 4.8 14.5 0.00 0.00 0.00 77 1013.8
20260509053204 13 180 4.8 14.5 0.00 0.00 0.00 77 1013.9
20260509053104 13 156 4.8 9.7 0.00 0.00 0.00 77 1013.9
20260509053004 13 150 3.2 9.7 0.00 0.00 0.00 77 1013.9
20260509052900 13 141 3.2 9.7 0.00 0.00 0.00 77 1013.9
20260509052757 13 163 3.2 9.7 0.00 0.00 0.00 77 1014.0
20260509052657 13 155 3.2 9.7 0.00 0.00 0.00 77 1013.9
20260509052558 13 165 3.2 9.7 0.00 0.00 0.00 77 1013.9
20260509052455 13 165 3.2 9.7 0.00 0.00 0.00 77 1013.9
20260509052354 13 183 3.2 9.7 0.00 0.00 0.00 77 1014.0
20260509052255 13 166 3.2 9.7 0.00 0.00 0.00 77 1013.9
20260509052154 13 246 3.2 9.7 0.00 0.00 0.00 76 1014.0
20260509052056 13 174 1.6 8.0 0.00 0.00 0.00 76 1013.9
20260509051956 13 159 1.6 8.0 0.00 0.00 0.00 76 1014.0
20260509051856 13 159 3.2 8.0 0.00 0.00 0.00 77 1014.0
20260509051752 13 159 3.2 8.0 0.00 0.00 0.00 76 1014.0
20260509051653 13 159 3.2 8.0 0.00 0.00 0.00 76 1014.0
20260509051552 13 158 3.2 8.0 0.00 0.00 0.00 76 1014.1
20260509051452 13 158 3.2 8.0 0.00 0.00 0.00 76 1014.1
20260509051349 13 104 3.2 9.7 0.00 0.00 0.00 76 1014.1
20260509051247 13 104 3.2 9.7 0.00 0.00 0.00 76 1014.1
20260509051145 13 188 3.2 9.7 0.00 0.00 0.00 76 1014.1
20260509051045 13 190 3.2 9.7 0.00 0.00 0.00 76 1014.1
20260509050944 13 194 3.2 9.7 0.00 0.00 0.00 76 1014.1
20260509050845 13 196 3.2 9.7 0.00 0.00 0.00 76 1014.1
20260509050745 13 139 3.2 9.7 0.00 0.00 0.00 76 1014.1
20260509050644 13 139 3.2 9.7 0.00 0.00 0.00 76 1014.1
20260509050544 13 161 3.2 9.7 0.00 0.00 0.00 76 1014.1
20260509050445 13 163 3.2 11.3 0.00 0.00 0.00 76 1014.2
20260509050345 13 168 3.2 11.3 0.00 0.00 0.00 76 1014.1
20260509050244 13 158 3.2 11.3 0.00 0.00 0.00 76 1014.1
20260509050144 13 161 3.2 11.3 0.00 0.00 0.00 76 1014.2
20260509050046 13 171 3.2 11.3 0.00 0.00 0.00 76 1014.2
20260509045941 13 171 3.2 11.3 0.00 0.00 0.00 76 1014.2
20260509045840 13 174 3.2 11.3 0.00 0.00 0.00 77 1014.2
20260509045741 13 174 3.2 11.3 0.00 0.00 0.00 77 1014.2
20260509045641 13 170 3.2 11.3 0.00 0.00 0.00 76 1014.3
20260509045541 13 170 3.2 11.3 0.00 0.00 0.00 76 1014.2
20260509045440 13 183 3.2 12.9 0.00 0.00 0.00 77 1014.2
20260509045339 13 180 4.8 14.5 0.00 0.00 0.00 77 1014.3
20260509045238 13 165 4.8 14.5 0.00 0.00 0.00 77 1014.3
20260509045140 13 171 4.8 14.5 0.00 0.00 0.00 77 1014.3
20260509045039 13 225 4.8 14.5 0.00 0.00 0.00 77 1014.3
20260509044940 13 171 4.8 14.5 0.00 0.00 0.00 77 1014.4
20260509044838 13 171 4.8 14.5 0.00 0.00 0.00 77 1014.4
20260509044739 13 184 4.8 14.5 0.00 0.00 0.00 77 1014.3
20260509044638 13 182 4.8 14.5 0.00 0.00 0.00 76 1014.3
20260509044540 13 151 4.8 14.5 0.00 0.00 0.00 76 1014.3
20260509044438 13 175 3.2 14.5 0.00 0.00 0.00 76 1014.3
20260509044339 13 193 3.2 14.5 0.00 0.00 0.00 77 1014.3
20260509044240 13 159 3.2 14.5 0.00 0.00 0.00 76 1014.3
20260509044139 13 159 3.2 14.5 0.00 0.00 0.00 76 1014.3
20260509044039 13 123 3.2 14.5 0.00 0.00 0.00 76 1014.4
20260509043939 13 190 3.2 9.7 0.00 0.00 0.00 77 1014.3
20260509043839 13 165 3.2 9.7 0.00 0.00 0.00 76 1014.4
20260509043739 13 165 3.2 9.7 0.00 0.00 0.00 76 1014.3
20260509043639 13 165 3.2 9.7 0.00 0.00 0.00 76 1014.3
20260509043539 13 167 3.2 9.7 0.00 0.00 0.00 76 1014.3
20260509043440 13 167 3.2 9.7 0.00 0.00 0.00 76 1014.3
20260509043336 13 169 3.2 9.7 0.00 0.00 0.00 76 1014.4
20260509043234 13 138 3.2 9.7 0.00 0.00 0.00 76 1014.3
20260509043134 13 169 3.2 12.9 0.00 0.00 0.00 76 1014.4
20260509043034 13 136 3.2 12.9 0.00 0.00 0.00 76 1014.3
20260509042935 13 178 3.2 12.9 0.00 0.00 0.00 76 1014.3
20260509042834 13 175 3.2 12.9 0.00 0.00 0.00 76 1014.3
20260509042736 13 184 3.2 12.9 0.00 0.00 0.00 76 1014.4
20260509042634 13 155 4.8 12.9 0.00 0.00 0.00 76 1014.3
20260509042534 13 155 4.8 12.9 0.00 0.00 0.00 76 1014.3
20260509042436 13 158 4.8 12.9 0.00 0.00 0.00 76 1014.2
20260509042336 13 121 4.8 12.9 0.00 0.00 0.00 76 1014.3
20260509042234 13 204 4.8 12.9 0.00 0.00 0.00 76 1014.4
20260509042136 13 154 4.8 11.3 0.00 0.00 0.00 76 1014.4
20260509042034 13 169 4.8 11.3 0.00 0.00 0.00 76 1014.3
20260509041934 13 174 4.8 11.3 0.00 0.00 0.00 76 1014.3
20260509041834 13 156 4.8 11.3 0.00 0.00 0.00 76 1014.2
20260509041736 13 153 4.8 11.3 0.00 0.00 0.00 76 1014.3
20260509041636 13 166 4.8 12.9 0.00 0.00 0.00 76 1014.3
20260509041534 13 166 4.8 12.9 0.00 0.00 0.00 76 1014.3
20260509041436 13 167 4.8 12.9 0.00 0.00 0.00 76 1014.4
20260509041335 13 157 4.8 12.9 0.00 0.00 0.00 76 1014.4
20260509041234 13 151 4.8 12.9 0.00 0.00 0.00 76 1014.4
20260509041135 13 166 4.8 12.9 0.00 0.00 0.00 76 1014.3
20260509041034 13 172 4.8 12.9 0.00 0.00 0.00 76 1014.3
20260509040935 13 120 4.8 12.9 0.00 0.00 0.00 76 1014.3
20260509040836 13 172 4.8 12.9 0.00 0.00 0.00 76 1014.2
20260509040736 13 178 4.8 12.9 0.00 0.00 0.00 76 1014.3
20260509040635 13 166 4.8 11.3 0.00 0.00 0.00 76 1014.3
20260509040534 13 169 4.8 11.3 0.00 0.00 0.00 76 1014.3
20260509040436 13 171 4.8 11.3 0.00 0.00 0.00 76 1014.3
20260509040334 13 172 4.8 11.3 0.00 0.00 0.00 76 1014.3
20260509040235 13 146 4.8 11.3 0.00 0.00 0.00 76 1014.4
20260509040135 13 146 4.8 11.3 0.00 0.00 0.00 76 1014.3
20260509040036 13 162 4.8 11.3 0.00 0.00 0.00 76 1014.4
20260509035934 13 177 4.8 11.3 0.00 0.00 0.00 75 1014.4
20260509035833 13 177 4.8 11.3 0.00 0.00 0.00 75 1014.4
20260509035732 13 140 4.8 14.5 0.00 0.00 0.00 75 1014.5
20260509035629 13 167 4.8 14.5 0.00 0.00 0.00 75 1014.5
20260509035526 13 158 4.8 14.5 0.00 0.00 0.00 75 1014.5
20260509035427 13 162 4.8 14.5 0.00 0.00 0.00 75 1014.5
20260509035327 13 161 4.8 14.5 0.00 0.00 0.00 75 1014.5
20260509035226 13 165 4.8 14.5 0.00 0.00 0.00 76 1014.6
20260509035123 13 167 4.8 14.5 0.00 0.00 0.00 75 1014.5
20260509035015 13 136 4.8 14.5 0.00 0.00 0.00 75 1014.4
20260509034915 13 136 4.8 14.5 0.00 0.00 0.00 76 1014.4
20260509034815 13 136 4.8 14.5 0.00 0.00 0.00 75 1014.5
20260509034714 13 163 3.2 11.3 0.00 0.00 0.00 76 1014.4
20260509034613 13 150 4.8 11.3 0.00 0.00 0.00 75 1014.4
20260509034507 13 155 4.8 11.3 0.00 0.00 0.00 76 1014.4
20260509034407 13 154 4.8 11.3 0.00 0.00 0.00 75 1014.5
20260509034308 13 165 4.8 11.3 0.00 0.00 0.00 75 1014.5
20260509034206 13 165 4.8 11.3 0.00 0.00 0.00 75 1014.6
20260509034107 13 172 4.8 11.3 0.00 0.00 0.00 75 1014.5
20260509034002 13 177 4.8 11.3 0.00 0.00 0.00 75 1014.5
20260509033902 13 184 4.8 11.3 0.00 0.00 0.00 75 1014.4
20260509033801 13 176 4.8 11.3 0.00 0.00 0.00 75 1014.4
20260509033700 13 185 4.8 11.3 0.00 0.00 0.00 75 1014.4
20260509033603 13 149 4.8 11.3 0.00 0.00 0.00 75 1014.5
20260509033451 13 149 4.8 11.3 0.00 0.00 0.00 75 1014.4
20260509033350 13 194 4.8 11.3 0.00 0.00 0.00 75 1014.5
20260509033250 13 150 4.8 11.3 0.00 0.00 0.00 75 1014.5
20260509033151 13 163 4.8 11.3 0.00 0.00 0.00 75 1014.5
20260509033052 13 163 4.8 11.3 0.00 0.00 0.00 75 1014.6
20260509032947 13 163 4.8 11.3 0.00 0.00 0.00 75 1014.6
20260509032845 13 146 4.8 11.3 0.00 0.00 0.00 75 1014.5
20260509032744 13 146 4.8 11.3 0.00 0.00 0.00 75 1014.5
20260509032646 13 159 4.8 11.3 0.00 0.00 0.00 75 1014.5
20260509032545 13 126 4.8 11.3 0.00 0.00 0.00 75 1014.4
20260509032442 13 123 4.8 11.3 0.00 0.00 0.00 75 1014.5
20260509032339 13 123 4.8 11.3 0.00 0.00 0.00 75 1014.5
20260509032239 13 123 4.8 11.3 0.00 0.00 0.00 75 1014.5
20260509032138 13 166 4.8 11.3 0.00 0.00 0.00 75 1014.6
20260509032040 13 196 4.8 11.3 0.00 0.00 0.00 75 1014.6
20260509031932 13 173 4.8 11.3 0.00 0.00 0.00 75 1014.6
20260509031829 13 137 4.8 9.7 0.00 0.00 0.00 75 1014.6
20260509031729 13 158 4.8 9.7 0.00 0.00 0.00 75 1014.6
20260509031628 13 166 4.8 9.7 0.00 0.00 0.00 75 1014.5
20260509031530 13 140 4.8 9.7 0.00 0.00 0.00 75 1014.5
20260509031426 13 140 4.8 11.3 0.00 0.00 0.00 75 1014.6
20260509031326 13 146 4.8 11.3 0.00 0.00 0.00 75 1014.6
20260509031225 13 153 4.8 11.3 0.00 0.00 0.00 75 1014.6
20260509031124 13 150 4.8 11.3 0.00 0.00 0.00 75 1014.6
20260509031023 13 148 4.8 11.3 0.00 0.00 0.00 75 1014.6
20260509030918 13 128 4.8 11.3 0.00 0.00 0.00 75 1014.6
20260509030817 13 128 4.8 11.3 0.00 0.00 0.00 75 1014.6
20260509030718 13 147 3.2 11.3 0.00 0.00 0.00 75 1014.6
20260509030615 13 138 4.8 11.3 0.00 0.00 0.00 75 1014.7
20260509030515 13 139 3.2 11.3 0.00 0.00 0.00 75 1014.7
20260509030408 13 206 3.2 9.7 0.00 0.00 0.00 75 1014.6
20260509030308 13 163 4.8 9.7 0.00 0.00 0.00 75 1014.6
20260509030209 13 163 4.8 11.3 0.00 0.00 0.00 75 1014.6
20260509030108 13 164 4.8 11.3 0.00 0.00 0.00 75 1014.6
20260509030007 13 165 4.8 11.3 0.00 0.00 0.00 75 1014.6
20260509025900 13 165 4.8 11.3 0.00 0.00 0.00 75 1014.6
20260509025801 13 167 4.8 11.3 0.00 0.00 0.00 75 1014.6
20260509025701 13 167 4.8 11.3 0.00 0.00 0.00 75 1014.6
20260509025602 13 160 4.8 11.3 0.00 0.00 0.00 75 1014.7
20260509025500 13 160 4.8 11.3 0.00 0.00 0.00 75 1014.8
20260509025355 13 162 4.8 11.3 0.00 0.00 0.00 74 1014.6
20260509025252 13 157 4.8 11.3 0.00 0.00 0.00 75 1014.6
20260509025151 13 123 4.8 11.3 0.00 0.00 0.00 74 1014.6
20260509025051 13 175 4.8 11.3 0.00 0.00 0.00 74 1014.7
20260509024951 13 158 4.8 11.3 0.00 0.00 0.00 74 1014.7
20260509024847 13 148 4.8 11.3 0.00 0.00 0.00 74 1014.7
20260509024746 13 148 6.4 11.3 0.00 0.00 0.00 74 1014.8
20260509024644 13 120 4.8 11.3 0.00 0.00 0.00 74 1014.8
20260509024542 13 167 4.8 11.3 0.00 0.00 0.00 74 1014.8
20260509024441 13 142 6.4 11.3 0.00 0.00 0.00 74 1014.8
20260509024339 13 163 6.4 11.3 0.00 0.00 0.00 74 1014.8
20260509024240 13 142 6.4 11.3 0.00 0.00 0.00 74 1014.8
20260509024138 13 161 6.4 11.3 0.00 0.00 0.00 74 1014.8
20260509024037 13 167 4.8 11.3 0.00 0.00 0.00 74 1014.8
20260509023935 13 136 4.8 11.3 0.00 0.00 0.00 74 1014.9
20260509023831 13 136 4.8 11.3 0.00 0.00 0.00 74 1014.8
20260509023731 13 146 4.8 11.3 0.00 0.00 0.00 74 1014.7
20260509023630 13 150 6.4 11.3 0.00 0.00 0.00 74 1014.8
20260509023530 13 168 4.8 11.3 0.00 0.00 0.00 74 1014.7
20260509023431 13 175 4.8 11.3 0.00 0.00 0.00 74 1014.8
20260509023330 13 140 4.8 11.3 0.00 0.00 0.00 74 1014.8
20260509023229 13 154 4.8 11.3 0.00 0.00 0.00 74 1014.7
20260509023128 13 146 4.8 11.3 0.00 0.00 0.00 74 1014.8
20260509023027 13 170 4.8 11.3 0.00 0.00 0.00 73 1014.8
20260509022927 13 163 6.4 11.3 0.00 0.00 0.00 73 1014.7
20260509022826 13 144 6.4 11.3 0.00 0.00 0.00 73 1014.7
20260509022726 13 159 6.4 11.3 0.00 0.00 0.00 73 1014.8
20260509022628 13 157 4.8 11.3 0.00 0.00 0.00 73 1014.8
20260509022524 13 155 6.4 11.3 0.00 0.00 0.00 73 1014.8
20260509022424 13 166 6.4 11.3 0.00 0.00 0.00 73 1014.8
20260509022325 13 173 6.4 11.3 0.00 0.00 0.00 73 1014.8
20260509022226 13 163 6.4 11.3 0.00 0.00 0.00 73 1014.8
20260509022125 13 163 6.4 11.3 0.00 0.00 0.00 73 1014.7
20260509022025 13 168 6.4 11.3 0.00 0.00 0.00 73 1014.8
20260509021924 13 158 6.4 11.3 0.00 0.00 0.00 73 1014.7
20260509021824 13 160 6.4 11.3 0.00 0.00 0.00 73 1014.8
20260509021725 13 157 6.4 11.3 0.00 0.00 0.00 73 1014.8
20260509021624 13 148 6.4 11.3 0.00 0.00 0.00 73 1014.8
20260509021525 13 162 6.4 12.9 0.00 0.00 0.00 73 1014.8
20260509021420 13 173 6.4 12.9 0.00 0.00 0.00 73 1015.0
20260509021322 13 159 4.8 12.9 0.00 0.00 0.00 73 1014.9